GEFSSGP_prec_meanprecacc_114.txt.gz
Total_Precipitation_Accumulation
0.00 0.00 0.00 0.00 0.00 0.00 0.00 0.00 0.00 0.00 0.00 0.00 0.00 0.00 0.00 0.00 0.00 0.00 0.00 0.00 0.02 0.03 0.04 0.06 0.07 0.08 0.08 0.08 0.07 0.06 0.06 0.07 0.08 0.07 0.06 0.07 0.08 0.09 0.11 0.14 0.16 0.20 0.22 0.20 0.18 0.20 0.23 0.22 0.21
0.00 0.00 0.00 0.00 0.00 0.00 0.00 0.00 0.00 0.00 0.00 0.00 0.00 0.00 0.00 0.00 0.00 0.00 0.00 0.00 0.01 0.01 0.02 0.03 0.05 0.07 0.07 0.07 0.06 0.06 0.06 0.06 0.06 0.06 0.05 0.05 0.06 0.06 0.08 0.09 0.13 0.19 0.25 0.29 0.29 0.28 0.28 0.24 0.23
0.00 0.00 0.00 0.00 0.00 0.00 0.00 0.00 0.00 0.00 0.00 0.00 0.00 0.00 0.00 0.00 0.00 0.00 0.00 0.00 0.00 0.00 0.01 0.02 0.05 0.06 0.07 0.07 0.07 0.06 0.06 0.06 0.06 0.06 0.06 0.05 0.05 0.05 0.05 0.05 0.08 0.15 0.24 0.30 0.34 0.31 0.29 0.27 0.26
0.00 0.00 0.00 0.00 0.00 0.00 0.00 0.00 0.00 0.00 0.00 0.00 0.00 0.00 0.00 0.00 0.00 0.00 0.00 0.00 0.00 0.01 0.01 0.02 0.05 0.06 0.07 0.07 0.07 0.06 0.06 0.07 0.07 0.07 0.07 0.08 0.08 0.07 0.06 0.05 0.05 0.08 0.14 0.23 0.27 0.27 0.29 0.31 0.26
0.00 0.00 0.00 0.00 0.00 0.00 0.00 0.00 0.00 0.00 0.00 0.00 0.00 0.00 0.00 0.00 0.00 0.00 0.00 0.00 0.00 0.00 0.01 0.02 0.05 0.06 0.07 0.07 0.08 0.07 0.08 0.08 0.08 0.08 0.08 0.10 0.10 0.09 0.08 0.08 0.06 0.05 0.06 0.12 0.18 0.22 0.27 0.31 0.28
0.00 0.00 0.00 0.00 0.00 0.00 0.00 0.00 0.00 0.00 0.00 0.00 0.00 0.00 0.00 0.00 0.00 0.00 0.00 0.00 0.00 0.00 0.00 0.01 0.04 0.05 0.07 0.08 0.09 0.10 0.10 0.10 0.10 0.10 0.09 0.09 0.10 0.10 0.11 0.12 0.10 0.07 0.06 0.06 0.09 0.15 0.22 0.26 0.28
0.00 0.00 0.00 0.00 0.00 0.00 0.00 0.00 0.00 0.00 0.00 0.00 0.00 0.00 0.00 0.00 0.00 0.00 0.00 0.00 0.00 0.00 0.00 0.01 0.01 0.03 0.05 0.07 0.09 0.10 0.11 0.10 0.10 0.09 0.08 0.08 0.08 0.10 0.14 0.15 0.12 0.11 0.10 0.09 0.07 0.07 0.11 0.15 0.20
0.00 0.00 0.00 0.00 0.00 0.00 0.00 0.00 0.00 0.00 0.00 0.00 0.00 0.00 0.00 0.00 0.00 0.00 0.00 0.00 0.00 0.00 0.00 0.00 0.00 0.01 0.02 0.05 0.08 0.10 0.10 0.10 0.10 0.09 0.08 0.07 0.07 0.09 0.12 0.12 0.10 0.11 0.12 0.12 0.10 0.08 0.07 0.07 0.09
0.00 0.00 0.00 0.00 0.00 0.00 0.00 0.00 0.00 0.00 0.00 0.00 0.00 0.00 0.00 0.00 0.00 0.00 0.00 0.00 0.00 0.00 0.00 0.00 0.00 0.01 0.01 0.02 0.06 0.08 0.10 0.10 0.10 0.09 0.09 0.08 0.06 0.05 0.05 0.05 0.06 0.09 0.11 0.10 0.11 0.11 0.09 0.07 0.04
0.00 0.00 0.00 0.00 0.00 0.00 0.00 0.00 0.00 0.00 0.00 0.00 0.00 0.00 0.00 0.00 0.00 0.00 0.00 0.00 0.00 0.00 0.00 0.00 0.00 0.00 0.01 0.01 0.04 0.06 0.07 0.07 0.07 0.07 0.08 0.07 0.06 0.05 0.05 0.05 0.06 0.09 0.10 0.09 0.10 0.12 0.11 0.08 0.06
0.00 0.00 0.00 0.00 0.00 0.00 0.00 0.00 0.00 0.00 0.00 0.00 0.00 0.00 0.00 0.00 0.00 0.00 0.00 0.00 0.00 0.00 0.00 0.00 0.00 0.00 0.01 0.01 0.03 0.04 0.05 0.07 0.08 0.09 0.10 0.10 0.11 0.11 0.11 0.11 0.12 0.13 0.12 0.13 0.14 0.17 0.17 0.19 0.21
0.00 0.00 0.00 0.00 0.00 0.00 0.00 0.00 0.00 0.00 0.00 0.00 0.00 0.00 0.00 0.00 0.00 0.00 0.00 0.00 0.00 0.00 0.00 0.00 0.00 0.00 0.00 0.01 0.01 0.02 0.02 0.05 0.07 0.08 0.12 0.15 0.18 0.20 0.22 0.22 0.26 0.26 0.25 0.24 0.23 0.20 0.20 0.21 0.22
0.00 0.00 0.00 0.00 0.00 0.00 0.00 0.00 0.00 0.00 0.00 0.00 0.00 0.00 0.00 0.00 0.00 0.00 0.00 0.00 0.00 0.00 0.00 0.00 0.00 0.00 0.00 0.01 0.01 0.01 0.02 0.04 0.06 0.06 0.09 0.11 0.11 0.11 0.11 0.11 0.12 0.12 0.13 0.14 0.16 0.17 0.16 0.16 0.16
0.00 0.00 0.00 0.00 0.00 0.00 0.00 0.00 0.00 0.00 0.00 0.00 0.00 0.00 0.00 0.00 0.00 0.00 0.00 0.00 0.00 0.00 0.00 0.00 0.00 0.00 0.01 0.01 0.01 0.01 0.01 0.02 0.03 0.03 0.03 0.03 0.04 0.03 0.03 0.03 0.03 0.02 0.02 0.02 0.03 0.04 0.05 0.06 0.08
0.00 0.00 0.00 0.00 0.00 0.00 0.00 0.00 0.00 0.00 0.00 0.00 0.00 0.00 0.00 0.00 0.00 0.00 0.00 0.00 0.00 0.00 0.00 0.00 0.00 0.00 0.01 0.01 0.01 0.01 0.01 0.02 0.02 0.02 0.01 0.01 0.01 0.02 0.02 0.01 0.01 0.00 0.00 0.00 0.00 0.00 0.01 0.01 0.02
0.00 0.00 0.00 0.00 0.00 0.00 0.00 0.00 0.00 0.00 0.00 0.00 0.00 0.00 0.00 0.00 0.00 0.00 0.00 0.00 0.00 0.00 0.00 0.00 0.00 0.00 0.01 0.01 0.01 0.01 0.01 0.01 0.02 0.01 0.01 0.01 0.01 0.01 0.01 0.01 0.01 0.00 0.01 0.01 0.01 0.01 0.01 0.01 0.01
0.00 0.00 0.00 0.00 0.00 0.00 0.00 0.00 0.00 0.00 0.00 0.00 0.00 0.00 0.00 0.00 0.00 0.00 0.00 0.00 0.00 0.00 0.00 0.00 0.00 0.00 0.01 0.01 0.01 0.01 0.01 0.01 0.01 0.01 0.01 0.01 0.01 0.01 0.01 0.01 0.01 0.01 0.01 0.02 0.02 0.02 0.02 0.01 0.01
0.00 0.00 0.00 0.00 0.00 0.00 0.00 0.00 0.00 0.00 0.00 0.00 0.00 0.00 0.00 0.00 0.00 0.00 0.00 0.00 0.00 0.00 0.00 0.00 0.00 0.00 0.01 0.01 0.01 0.01 0.01 0.01 0.01 0.01 0.01 0.01 0.01 0.01 0.01 0.01 0.01 0.01 0.01 0.01 0.01 0.02 0.02 0.02 0.02
0.00 0.00 0.00 0.00 0.00 0.00 0.00 0.00 0.00 0.00 0.00 0.00 0.00 0.00 0.00 0.00 0.00 0.00 0.00 0.00 0.00 0.00 0.00 0.00 0.00 0.00 0.01 0.01 0.01 0.02 0.01 0.01 0.01 0.01 0.01 0.01 0.01 0.00 0.00 0.01 0.01 0.01 0.01 0.01 0.01 0.02 0.03 0.02 0.02
0.00 0.00 0.00 0.00 0.00 0.00 0.00 0.00 0.00 0.00 0.00 0.00 0.00 0.00 0.00 0.00 0.00 0.00 0.00 0.00 0.00 0.00 0.00 0.00 0.00 0.00 0.00 0.00 0.01 0.01 0.01 0.00 0.00 0.00 0.00 0.00 0.00 0.00 0.00 0.00 0.00 0.01 0.01 0.01 0.01 0.02 0.04 0.04 0.03
0.00 0.00 0.00 0.00 0.00 0.00 0.00 0.00 0.00 0.00 0.00 0.00 0.00 0.00 0.00 0.00 0.00 0.00 0.00 0.00 0.00 0.00 0.00 0.00 0.00 0.00 0.00 0.00 0.00 0.00 0.00 0.00 0.00 0.00 0.00 0.00 0.00 0.00 0.00 0.00 0.00 0.00 0.01 0.01 0.01 0.02 0.04 0.06 0.04
0.00 0.00 0.00 0.00 0.00 0.00 0.00 0.00 0.00 0.00 0.00 0.00 0.00 0.00 0.00 0.00 0.00 0.00 0.00 0.00 0.00 0.00 0.00 0.00 0.00 0.00 0.00 0.00 0.00 0.00 0.01 0.00 0.00 0.00 0.00 0.00 0.00 0.00 0.00 0.00 0.00 0.01 0.01 0.01 0.02 0.03 0.05 0.11 0.12
0.00 0.00 0.00 0.00 0.00 0.00 0.00 0.00 0.00 0.00 0.00 0.00 0.00 0.00 0.00 0.00 0.00 0.00 0.00 0.00 0.00 0.00 0.00 0.00 0.00 0.00 0.00 0.00 0.00 0.00 0.00 0.00 0.00 0.00 0.00 0.00 0.00 0.00 0.00 0.00 0.00 0.00 0.01 0.02 0.03 0.04 0.06 0.12 0.17
0.00 0.00 0.00 0.00 0.00 0.00 0.00 0.00 0.00 0.00 0.00 0.00 0.00 0.00 0.00 0.00 0.00 0.00 0.00 0.00 0.00 0.00 0.00 0.00 0.00 0.00 0.00 0.00 0.00 0.00 0.00 0.00 0.00 0.00 0.00 0.00 0.00 0.00 0.00 0.00 0.00 0.01 0.01 0.03 0.04 0.06 0.09 0.11 0.15
0.00 0.00 0.00 0.00 0.00 0.00 0.00 0.00 0.00 0.00 0.00 0.00 0.00 0.00 0.00 0.00 0.00 0.00 0.00 0.00 0.00 0.00 0.00 0.00 0.00 0.00 0.00 0.00 0.00 0.00 0.00 0.00 0.00 0.00 0.00 0.01 0.01 0.01 0.01 0.01 0.01 0.01 0.03 0.04 0.07 0.10 0.11 0.12 0.16
0.00 0.00 0.00 0.00 0.00 0.00 0.00 0.00 0.00 0.00 0.00 0.00 0.00 0.00 0.00 0.00 0.00 0.00 0.00 0.00 0.00 0.00 0.00 0.00 0.00 0.00 0.00 0.00 0.00 0.00 0.00 0.00 0.00 0.00 0.01 0.01 0.01 0.01 0.01 0.01 0.01 0.02 0.04 0.07 0.10 0.13 0.14 0.16 0.19
0.00 0.00 0.00 0.00 0.00 0.00 0.00 0.00 0.00 0.00 0.00 0.00 0.00 0.00 0.00 0.00 0.00 0.00 0.00 0.00 0.00 0.00 0.00 0.00 0.00 0.00 0.00 0.00 0.00 0.00 0.00 0.00 0.00 0.00 0.01 0.01 0.01 0.01 0.01 0.01 0.02 0.04 0.07 0.10 0.12 0.15 0.17 0.20 0.22
0.00 0.00 0.00 0.00 0.00 0.00 0.00 0.00 0.00 0.00 0.00 0.00 0.00 0.00 0.00 0.00 0.00 0.00 0.00 0.00 0.00 0.00 0.00 0.00 0.00 0.00 0.00 0.00 0.00 0.00 0.00 0.00 0.00 0.00 0.01 0.01 0.01 0.01 0.01 0.03 0.05 0.09 0.14 0.17 0.18 0.19 0.20 0.24 0.26
0.00 0.00 0.00 0.00 0.00 0.00 0.00 0.00 0.00 0.00 0.00 0.00 0.00 0.00 0.00 0.00 0.00 0.00 0.00 0.00 0.00 0.00 0.00 0.00 0.00 0.00 0.00 0.00 0.00 0.00 0.00 0.00 0.00 0.01 0.01 0.02 0.02 0.02 0.03 0.06 0.09 0.14 0.20 0.24 0.27 0.28 0.30 0.31 0.28
0.00 0.00 0.00 0.00 0.00 0.00 0.00 0.00 0.00 0.00 0.00 0.00 0.00 0.00 0.00 0.00 0.00 0.00 0.00 0.00 0.00 0.00 0.00 0.00 0.00 0.00 0.00 0.00 0.00 0.00 0.00 0.00 0.01 0.01 0.01 0.02 0.03 0.05 0.07 0.11 0.16 0.20 0.24 0.27 0.36 0.42 0.44 0.47 0.46

GEFSSGP_prec_meanprecacc_120.txt.gz
Total_Precipitation_Accumulation
0.00 0.00 0.00 0.00 0.00 0.00 0.00 0.00 0.00 0.00 0.00 0.00 0.00 0.00 0.00 0.00 0.00 0.00 0.00 0.00 0.02 0.03 0.04 0.06 0.08 0.08 0.10 0.10 0.09 0.08 0.07 0.08 0.09 0.07 0.07 0.07 0.08 0.10 0.12 0.14 0.17 0.20 0.23 0.21 0.19 0.21 0.23 0.22 0.21
0.00 0.00 0.00 0.00 0.00 0.00 0.00 0.00 0.00 0.00 0.00 0.00 0.00 0.00 0.00 0.00 0.00 0.00 0.00 0.00 0.01 0.01 0.02 0.03 0.06 0.08 0.08 0.08 0.08 0.07 0.07 0.07 0.07 0.06 0.06 0.06 0.06 0.07 0.08 0.10 0.14 0.19 0.26 0.29 0.29 0.29 0.28 0.25 0.23
0.00 0.00 0.00 0.00 0.00 0.00 0.00 0.00 0.00 0.00 0.00 0.00 0.00 0.00 0.00 0.00 0.00 0.00 0.00 0.00 0.00 0.00 0.01 0.02 0.05 0.07 0.08 0.08 0.08 0.07 0.07 0.07 0.08 0.07 0.06 0.06 0.05 0.05 0.05 0.05 0.08 0.15 0.24 0.30 0.34 0.31 0.29 0.28 0.26
0.00 0.00 0.00 0.00 0.00 0.00 0.00 0.00 0.00 0.00 0.00 0.00 0.00 0.00 0.00 0.00 0.00 0.00 0.00 0.00 0.00 0.01 0.01 0.02 0.05 0.07 0.08 0.08 0.08 0.07 0.07 0.08 0.08 0.08 0.08 0.09 0.08 0.07 0.06 0.05 0.05 0.08 0.14 0.23 0.27 0.27 0.29 0.31 0.26
0.00 0.00 0.00 0.00 0.00 0.00 0.00 0.00 0.00 0.00 0.00 0.00 0.00 0.00 0.00 0.00 0.00 0.00 0.00 0.00 0.00 0.00 0.01 0.02 0.05 0.07 0.08 0.08 0.08 0.08 0.08 0.09 0.09 0.09 0.09 0.10 0.10 0.09 0.08 0.08 0.07 0.05 0.06 0.12 0.18 0.22 0.27 0.31 0.28
0.00 0.00 0.00 0.00 0.00 0.00 0.00 0.00 0.00 0.00 0.00 0.00 0.00 0.00 0.00 0.00 0.00 0.00 0.00 0.00 0.00 0.00 0.00 0.01 0.04 0.06 0.07 0.08 0.10 0.10 0.11 0.12 0.11 0.10 0.09 0.09 0.10 0.10 0.12 0.12 0.10 0.07 0.06 0.06 0.09 0.15 0.22 0.26 0.28
0.00 0.00 0.00 0.00 0.00 0.00 0.00 0.00 0.00 0.00 0.00 0.00 0.00 0.00 0.00 0.00 0.00 0.00 0.00 0.00 0.00 0.00 0.00 0.01 0.02 0.03 0.06 0.07 0.10 0.11 0.12 0.12 0.11 0.10 0.09 0.08 0.08 0.10 0.14 0.15 0.12 0.11 0.10 0.09 0.07 0.07 0.11 0.15 0.20
0.00 0.00 0.00 0.00 0.00 0.00 0.00 0.00 0.00 0.00 0.00 0.00 0.00 0.00 0.00 0.00 0.00 0.00 0.00 0.00 0.00 0.00 0.00 0.00 0.01 0.01 0.03 0.05 0.09 0.11 0.11 0.11 0.11 0.10 0.08 0.07 0.07 0.09 0.12 0.12 0.10 0.11 0.12 0.12 0.10 0.09 0.07 0.08 0.09
0.00 0.00 0.00 0.00 0.00 0.00 0.00 0.00 0.00 0.00 0.00 0.00 0.00 0.00 0.00 0.00 0.00 0.00 0.00 0.00 0.00 0.00 0.00 0.00 0.00 0.01 0.01 0.03 0.06 0.09 0.11 0.11 0.11 0.09 0.09 0.08 0.06 0.05 0.05 0.05 0.06 0.09 0.11 0.10 0.11 0.11 0.09 0.07 0.04
0.00 0.00 0.00 0.00 0.00 0.00 0.00 0.00 0.00 0.00 0.00 0.00 0.00 0.00 0.00 0.00 0.00 0.00 0.00 0.00 0.00 0.00 0.00 0.00 0.00 0.00 0.01 0.02 0.04 0.06 0.07 0.08 0.07 0.07 0.08 0.07 0.06 0.05 0.05 0.05 0.06 0.09 0.10 0.09 0.10 0.12 0.11 0.08 0.06
0.00 0.00 0.00 0.00 0.00 0.00 0.00 0.00 0.00 0.00 0.00 0.00 0.00 0.00 0.00 0.00 0.00 0.00 0.00 0.00 0.00 0.00 0.00 0.00 0.00 0.00 0.01 0.01 0.03 0.05 0.06 0.07 0.09 0.09 0.10 0.10 0.11 0.11 0.11 0.11 0.12 0.13 0.12 0.13 0.14 0.17 0.17 0.19 0.21
0.00 0.00 0.00 0.00 0.00 0.00 0.00 0.00 0.00 0.00 0.00 0.00 0.00 0.00 0.00 0.00 0.00 0.00 0.00 0.00 0.00 0.00 0.00 0.00 0.00 0.00 0.00 0.01 0.01 0.02 0.03 0.05 0.08 0.09 0.12 0.15 0.18 0.20 0.22 0.22 0.26 0.26 0.25 0.24 0.23 0.20 0.20 0.21 0.22
0.00 0.00 0.00 0.00 0.00 0.00 0.00 0.00 0.00 0.00 0.00 0.00 0.00 0.00 0.00 0.00 0.00 0.00 0.00 0.00 0.00 0.00 0.00 0.00 0.00 0.00 0.01 0.01 0.01 0.01 0.02 0.04 0.07 0.07 0.09 0.11 0.11 0.11 0.11 0.12 0.12 0.12 0.13 0.14 0.16 0.17 0.16 0.16 0.16
0.00 0.00 0.00 0.00 0.00 0.00 0.00 0.00 0.00 0.00 0.00 0.00 0.00 0.00 0.00 0.00 0.00 0.00 0.00 0.00 0.00 0.00 0.00 0.00 0.00 0.00 0.01 0.01 0.01 0.01 0.02 0.02 0.03 0.03 0.03 0.03 0.04 0.04 0.03 0.03 0.03 0.02 0.02 0.02 0.03 0.04 0.05 0.06 0.08
0.00 0.00 0.00 0.00 0.00 0.00 0.00 0.00 0.00 0.00 0.00 0.00 0.00 0.00 0.00 0.00 0.00 0.00 0.00 0.00 0.00 0.00 0.00 0.00 0.00 0.00 0.01 0.01 0.01 0.01 0.01 0.02 0.02 0.02 0.01 0.01 0.01 0.02 0.02 0.02 0.01 0.01 0.00 0.00 0.00 0.01 0.01 0.01 0.02
0.00 0.00 0.00 0.00 0.00 0.00 0.00 0.00 0.00 0.00 0.00 0.00 0.00 0.00 0.00 0.00 0.00 0.00 0.00 0.00 0.00 0.00 0.00 0.00 0.00 0.00 0.01 0.01 0.01 0.02 0.02 0.02 0.02 0.02 0.02 0.01 0.01 0.01 0.01 0.01 0.01 0.01 0.01 0.01 0.01 0.01 0.01 0.01 0.02
0.00 0.00 0.00 0.00 0.00 0.00 0.00 0.00 0.00 0.00 0.00 0.00 0.00 0.00 0.00 0.00 0.00 0.00 0.00 0.00 0.00 0.00 0.00 0.00 0.00 0.00 0.01 0.01 0.01 0.02 0.02 0.02 0.02 0.02 0.02 0.02 0.01 0.01 0.01 0.02 0.01 0.01 0.02 0.02 0.03 0.02 0.02 0.02 0.02
0.00 0.00 0.00 0.00 0.00 0.00 0.00 0.00 0.00 0.00 0.00 0.00 0.00 0.00 0.00 0.00 0.00 0.00 0.00 0.00 0.00 0.00 0.00 0.00 0.00 0.00 0.01 0.01 0.02 0.02 0.02 0.02 0.02 0.02 0.02 0.01 0.01 0.01 0.01 0.01 0.01 0.01 0.01 0.02 0.02 0.02 0.02 0.02 0.02
0.00 0.00 0.00 0.00 0.00 0.00 0.00 0.00 0.00 0.00 0.00 0.00 0.00 0.00 0.00 0.00 0.00 0.00 0.00 0.00 0.00 0.00 0.00 0.00 0.00 0.00 0.01 0.01 0.02 0.02 0.02 0.02 0.02 0.01 0.01 0.01 0.01 0.01 0.01 0.01 0.01 0.01 0.01 0.02 0.02 0.02 0.03 0.02 0.02
0.00 0.00 0.00 0.00 0.00 0.00 0.00 0.00 0.00 0.00 0.00 0.00 0.00 0.00 0.00 0.00 0.00 0.00 0.00 0.00 0.00 0.00 0.00 0.00 0.00 0.00 0.00 0.01 0.01 0.01 0.01 0.01 0.01 0.01 0.01 0.01 0.01 0.00 0.00 0.01 0.01 0.01 0.01 0.01 0.01 0.02 0.04 0.04 0.03
0.00 0.00 0.00 0.00 0.00 0.00 0.00 0.00 0.00 0.00 0.00 0.00 0.00 0.00 0.00 0.00 0.00 0.00 0.00 0.00 0.00 0.00 0.00 0.00 0.00 0.00 0.00 0.00 0.01 0.01 0.01 0.01 0.01 0.01 0.01 0.00 0.00 0.00 0.00 0.00 0.00 0.01 0.01 0.01 0.01 0.02 0.04 0.06 0.04
0.00 0.00 0.00 0.00 0.00 0.00 0.00 0.00 0.00 0.00 0.00 0.00 0.00 0.00 0.00 0.00 0.00 0.00 0.00 0.00 0.00 0.00 0.00 0.00 0.00 0.00 0.00 0.00 0.01 0.01 0.01 0.01 0.01 0.00 0.00 0.00 0.00 0.00 0.00 0.00 0.00 0.01 0.01 0.01 0.02 0.03 0.05 0.11 0.12
0.00 0.00 0.00 0.00 0.00 0.00 0.00 0.00 0.00 0.00 0.00 0.00 0.00 0.00 0.00 0.00 0.00 0.00 0.00 0.00 0.00 0.00 0.00 0.00 0.00 0.00 0.00 0.00 0.00 0.01 0.01 0.00 0.00 0.00 0.00 0.00 0.00 0.00 0.00 0.00 0.00 0.00 0.01 0.02 0.03 0.04 0.06 0.12 0.17
0.00 0.00 0.00 0.00 0.00 0.00 0.00 0.00 0.00 0.00 0.00 0.00 0.00 0.00 0.00 0.00 0.00 0.00 0.00 0.00 0.00 0.00 0.00 0.00 0.00 0.00 0.00 0.00 0.00 0.00 0.00 0.00 0.00 0.00 0.00 0.00 0.00 0.00 0.00 0.00 0.01 0.01 0.01 0.03 0.04 0.06 0.09 0.11 0.15
0.00 0.00 0.01 0.01 0.01 0.00 0.00 0.00 0.00 0.00 0.00 0.00 0.00 0.00 0.00 0.00 0.00 0.00 0.00 0.00 0.00 0.00 0.00 0.00 0.00 0.00 0.00 0.00 0.00 0.00 0.00 0.00 0.00 0.00 0.00 0.01 0.01 0.01 0.01 0.01 0.01 0.02 0.03 0.04 0.07 0.10 0.11 0.12 0.16
0.00 0.00 0.01 0.01 0.00 0.00 0.00 0.00 0.00 0.00 0.00 0.00 0.00 0.00 0.00 0.00 0.00 0.00 0.00 0.00 0.00 0.00 0.00 0.00 0.00 0.00 0.00 0.00 0.00 0.00 0.00 0.00 0.00 0.00 0.01 0.01 0.02 0.01 0.01 0.01 0.01 0.02 0.04 0.07 0.10 0.13 0.14 0.16 0.19
0.00 0.00 0.00 0.00 0.01 0.00 0.00 0.00 0.00 0.00 0.00 0.00 0.00 0.00 0.00 0.00 0.00 0.00 0.00 0.00 0.00 0.00 0.00 0.00 0.00 0.00 0.00 0.00 0.00 0.00 0.00 0.00 0.00 0.00 0.01 0.01 0.01 0.01 0.01 0.01 0.03 0.04 0.07 0.10 0.12 0.15 0.17 0.20 0.22
0.00 0.00 0.01 0.02 0.02 0.01 0.00 0.00 0.00 0.00 0.00 0.00 0.00 0.00 0.00 0.00 0.00 0.00 0.00 0.00 0.00 0.00 0.00 0.00 0.00 0.00 0.00 0.00 0.00 0.00 0.00 0.00 0.00 0.01 0.01 0.01 0.01 0.01 0.01 0.03 0.05 0.09 0.14 0.17 0.18 0.19 0.20 0.24 0.26
0.00 0.01 0.01 0.02 0.01 0.00 0.00 0.00 0.00 0.00 0.00 0.00 0.00 0.00 0.00 0.00 0.00 0.00 0.00 0.00 0.00 0.00 0.00 0.00 0.00 0.00 0.00 0.00 0.00 0.00 0.00 0.00 0.00 0.01 0.01 0.02 0.02 0.02 0.03 0.06 0.09 0.14 0.20 0.24 0.27 0.28 0.30 0.31 0.28
0.00 0.00 0.01 0.01 0.01 0.00 0.00 0.00 0.00 0.00 0.00 0.00 0.00 0.00 0.00 0.00 0.00 0.00 0.00 0.00 0.00 0.00 0.00 0.00 0.00 0.00 0.00 0.00 0.00 0.00 0.00 0.00 0.01 0.02 0.01 0.02 0.03 0.05 0.07 0.11 0.16 0.20 0.24 0.27 0.36 0.42 0.44 0.47 0.46

GEFSSGP_prec_meanprecacc_126.txt.gz
Total_Precipitation_Accumulation
0.00 0.00 0.00 0.00 0.00 0.00 0.00 0.00 0.00 0.00 0.00 0.00 0.00 0.00 0.00 0.00 0.00 0.00 0.00 0.00 0.02 0.03 0.04 0.07 0.09 0.10 0.11 0.12 0.11 0.09 0.07 0.09 0.10 0.08 0.07 0.08 0.09 0.10 0.13 0.15 0.17 0.21 0.23 0.22 0.20 0.22 0.24 0.23 0.21
0.00 0.00 0.00 0.00 0.00 0.00 0.00 0.00 0.00 0.00 0.00 0.00 0.00 0.00 0.00 0.00 0.00 0.00 0.00 0.00 0.01 0.01 0.02 0.03 0.07 0.09 0.10 0.10 0.09 0.07 0.07 0.08 0.08 0.07 0.06 0.06 0.07 0.07 0.08 0.10 0.14 0.20 0.26 0.30 0.30 0.29 0.29 0.25 0.23
0.00 0.00 0.00 0.00 0.00 0.00 0.00 0.00 0.00 0.00 0.00 0.00 0.00 0.00 0.00 0.00 0.00 0.00 0.00 0.00 0.00 0.00 0.01 0.03 0.06 0.08 0.10 0.10 0.09 0.07 0.07 0.08 0.08 0.07 0.07 0.06 0.06 0.05 0.06 0.06 0.08 0.16 0.24 0.30 0.34 0.31 0.29 0.28 0.26
0.00 0.00 0.00 0.00 0.00 0.00 0.00 0.00 0.00 0.00 0.00 0.00 0.00 0.00 0.00 0.00 0.00 0.00 0.00 0.00 0.00 0.01 0.01 0.02 0.06 0.08 0.09 0.09 0.09 0.08 0.08 0.09 0.09 0.08 0.08 0.09 0.08 0.07 0.06 0.05 0.05 0.08 0.14 0.23 0.27 0.28 0.30 0.31 0.26
0.00 0.00 0.00 0.00 0.00 0.00 0.00 0.00 0.00 0.00 0.00 0.00 0.00 0.00 0.00 0.00 0.00 0.00 0.00 0.00 0.00 0.00 0.01 0.02 0.06 0.08 0.08 0.09 0.09 0.09 0.09 0.10 0.10 0.09 0.09 0.10 0.10 0.09 0.08 0.08 0.07 0.05 0.06 0.12 0.18 0.23 0.27 0.31 0.28
0.00 0.00 0.00 0.00 0.00 0.00 0.00 0.00 0.00 0.00 0.00 0.00 0.00 0.00 0.00 0.00 0.00 0.00 0.00 0.00 0.00 0.00 0.00 0.01 0.05 0.07 0.08 0.09 0.10 0.11 0.11 0.12 0.12 0.10 0.10 0.09 0.10 0.10 0.12 0.12 0.10 0.07 0.06 0.07 0.09 0.15 0.22 0.27 0.28
0.00 0.00 0.00 0.00 0.00 0.00 0.00 0.00 0.00 0.00 0.00 0.00 0.00 0.00 0.00 0.00 0.00 0.00 0.00 0.00 0.00 0.00 0.00 0.01 0.02 0.04 0.06 0.08 0.10 0.11 0.12 0.12 0.11 0.10 0.09 0.08 0.08 0.10 0.14 0.15 0.12 0.11 0.10 0.09 0.07 0.07 0.11 0.15 0.20
0.00 0.00 0.00 0.00 0.00 0.00 0.00 0.00 0.00 0.00 0.00 0.00 0.00 0.00 0.00 0.00 0.00 0.00 0.00 0.00 0.00 0.00 0.00 0.00 0.01 0.01 0.03 0.05 0.09 0.11 0.12 0.12 0.11 0.10 0.08 0.07 0.07 0.09 0.12 0.12 0.10 0.11 0.12 0.12 0.10 0.09 0.07 0.08 0.09
0.00 0.00 0.00 0.00 0.00 0.00 0.00 0.00 0.00 0.00 0.00 0.00 0.00 0.00 0.00 0.00 0.00 0.00 0.00 0.00 0.00 0.00 0.00 0.00 0.00 0.01 0.02 0.03 0.06 0.09 0.11 0.11 0.11 0.09 0.09 0.08 0.06 0.05 0.05 0.05 0.06 0.09 0.11 0.10 0.11 0.11 0.09 0.07 0.04
0.00 0.00 0.00 0.00 0.00 0.00 0.00 0.00 0.00 0.00 0.00 0.00 0.00 0.00 0.00 0.00 0.00 0.00 0.00 0.00 0.00 0.00 0.00 0.00 0.00 0.00 0.01 0.02 0.04 0.07 0.08 0.08 0.07 0.07 0.08 0.07 0.06 0.05 0.05 0.05 0.06 0.09 0.10 0.09 0.10 0.12 0.11 0.08 0.06
0.00 0.00 0.00 0.00 0.00 0.00 0.00 0.00 0.00 0.00 0.00 0.00 0.00 0.00 0.00 0.00 0.00 0.00 0.00 0.00 0.00 0.00 0.00 0.00 0.00 0.00 0.01 0.01 0.03 0.05 0.06 0.07 0.09 0.09 0.10 0.10 0.11 0.11 0.11 0.11 0.12 0.13 0.12 0.13 0.14 0.17 0.17 0.19 0.21
0.00 0.00 0.00 0.00 0.00 0.00 0.00 0.00 0.00 0.00 0.00 0.00 0.00 0.00 0.00 0.00 0.00 0.00 0.00 0.00 0.00 0.00 0.00 0.00 0.00 0.00 0.00 0.01 0.01 0.02 0.03 0.05 0.08 0.09 0.12 0.15 0.18 0.20 0.22 0.22 0.26 0.26 0.25 0.24 0.23 0.20 0.20 0.21 0.22
0.00 0.00 0.00 0.00 0.00 0.00 0.00 0.00 0.00 0.00 0.00 0.00 0.00 0.00 0.00 0.00 0.00 0.00 0.00 0.00 0.00 0.00 0.00 0.00 0.00 0.00 0.01 0.01 0.01 0.01 0.02 0.04 0.07 0.07 0.09 0.11 0.11 0.11 0.11 0.12 0.12 0.12 0.13 0.14 0.16 0.17 0.16 0.16 0.16
0.00 0.00 0.00 0.00 0.00 0.00 0.00 0.00 0.00 0.00 0.00 0.00 0.00 0.00 0.00 0.00 0.00 0.00 0.00 0.00 0.00 0.00 0.00 0.00 0.00 0.00 0.01 0.01 0.01 0.01 0.02 0.02 0.03 0.03 0.03 0.03 0.04 0.04 0.03 0.03 0.03 0.02 0.02 0.02 0.03 0.04 0.05 0.06 0.08
0.00 0.00 0.00 0.00 0.00 0.00 0.00 0.00 0.00 0.00 0.00 0.00 0.00 0.00 0.00 0.00 0.00 0.00 0.00 0.00 0.00 0.00 0.00 0.00 0.00 0.00 0.01 0.01 0.01 0.01 0.01 0.02 0.02 0.02 0.01 0.01 0.01 0.02 0.02 0.02 0.01 0.01 0.00 0.00 0.00 0.01 0.01 0.01 0.02
0.00 0.00 0.00 0.00 0.00 0.00 0.00 0.00 0.00 0.00 0.00 0.00 0.00 0.00 0.00 0.00 0.00 0.00 0.00 0.00 0.00 0.00 0.00 0.00 0.00 0.00 0.01 0.01 0.01 0.02 0.02 0.02 0.02 0.02 0.02 0.01 0.01 0.01 0.01 0.01 0.01 0.01 0.01 0.01 0.01 0.01 0.01 0.01 0.02
0.00 0.00 0.00 0.00 0.00 0.00 0.00 0.00 0.00 0.00 0.00 0.00 0.00 0.00 0.00 0.00 0.00 0.00 0.00 0.00 0.00 0.00 0.00 0.00 0.00 0.00 0.01 0.01 0.01 0.02 0.02 0.02 0.02 0.02 0.02 0.02 0.01 0.01 0.01 0.02 0.01 0.01 0.02 0.02 0.03 0.02 0.02 0.02 0.02
0.00 0.00 0.00 0.00 0.00 0.00 0.00 0.00 0.00 0.00 0.00 0.00 0.00 0.00 0.00 0.00 0.00 0.00 0.00 0.00 0.00 0.00 0.00 0.00 0.00 0.00 0.01 0.01 0.02 0.02 0.02 0.02 0.02 0.02 0.02 0.01 0.01 0.01 0.01 0.01 0.01 0.01 0.01 0.02 0.02 0.02 0.02 0.02 0.02
0.00 0.00 0.00 0.00 0.00 0.00 0.00 0.00 0.00 0.00 0.00 0.00 0.00 0.00 0.00 0.00 0.00 0.00 0.00 0.00 0.00 0.00 0.00 0.00 0.00 0.00 0.01 0.01 0.02 0.02 0.02 0.02 0.02 0.01 0.01 0.01 0.01 0.01 0.01 0.01 0.01 0.01 0.01 0.02 0.02 0.02 0.03 0.02 0.02
0.00 0.00 0.00 0.00 0.00 0.00 0.00 0.00 0.00 0.00 0.00 0.00 0.00 0.00 0.00 0.00 0.00 0.00 0.00 0.00 0.00 0.00 0.00 0.00 0.00 0.00 0.00 0.01 0.01 0.01 0.01 0.01 0.01 0.01 0.01 0.01 0.01 0.01 0.01 0.01 0.01 0.01 0.01 0.01 0.01 0.02 0.04 0.04 0.03
0.00 0.00 0.00 0.00 0.00 0.00 0.00 0.00 0.00 0.00 0.00 0.00 0.00 0.00 0.00 0.00 0.00 0.00 0.00 0.00 0.00 0.00 0.00 0.00 0.00 0.00 0.00 0.00 0.01 0.01 0.01 0.01 0.01 0.01 0.01 0.01 0.01 0.00 0.00 0.00 0.01 0.01 0.01 0.01 0.01 0.02 0.04 0.06 0.04
0.00 0.00 0.00 0.00 0.00 0.00 0.00 0.00 0.00 0.00 0.00 0.00 0.00 0.00 0.00 0.00 0.00 0.00 0.00 0.00 0.00 0.00 0.00 0.00 0.00 0.00 0.00 0.00 0.01 0.01 0.01 0.01 0.01 0.00 0.00 0.00 0.00 0.00 0.00 0.00 0.00 0.01 0.01 0.02 0.02 0.03 0.05 0.11 0.12
0.00 0.00 0.00 0.00 0.00 0.00 0.00 0.00 0.00 0.00 0.00 0.00 0.00 0.00 0.00 0.00 0.00 0.00 0.00 0.00 0.00 0.00 0.00 0.00 0.00 0.00 0.00 0.00 0.00 0.01 0.01 0.00 0.00 0.00 0.00 0.00 0.00 0.00 0.00 0.00 0.00 0.00 0.01 0.02 0.03 0.04 0.06 0.12 0.17
0.00 0.01 0.01 0.01 0.02 0.02 0.00 0.00 0.00 0.00 0.00 0.00 0.00 0.00 0.00 0.00 0.00 0.00 0.00 0.00 0.00 0.00 0.00 0.00 0.00 0.00 0.00 0.00 0.00 0.00 0.00 0.00 0.00 0.00 0.00 0.00 0.01 0.01 0.00 0.00 0.01 0.01 0.01 0.03 0.04 0.06 0.09 0.11 0.15
0.01 0.03 0.08 0.09 0.07 0.04 0.00 0.00 0.00 0.00 0.00 0.00 0.00 0.00 0.00 0.00 0.00 0.00 0.00 0.00 0.00 0.00 0.00 0.00 0.00 0.00 0.00 0.00 0.00 0.00 0.00 0.00 0.00 0.00 0.01 0.01 0.01 0.01 0.01 0.01 0.01 0.02 0.03 0.04 0.07 0.10 0.11 0.12 0.16
0.01 0.02 0.06 0.06 0.02 0.00 0.00 0.00 0.00 0.00 0.00 0.00 0.00 0.00 0.00 0.00 0.00 0.00 0.00 0.00 0.00 0.00 0.00 0.00 0.00 0.00 0.00 0.00 0.00 0.00 0.00 0.00 0.00 0.00 0.01 0.01 0.02 0.01 0.01 0.01 0.01 0.02 0.04 0.07 0.10 0.13 0.14 0.16 0.19
0.00 0.01 0.01 0.02 0.02 0.01 0.00 0.00 0.00 0.00 0.00 0.00 0.00 0.00 0.00 0.00 0.00 0.00 0.00 0.00 0.00 0.00 0.00 0.00 0.00 0.00 0.00 0.00 0.00 0.00 0.00 0.00 0.00 0.00 0.01 0.01 0.01 0.01 0.01 0.01 0.03 0.04 0.07 0.10 0.12 0.15 0.17 0.20 0.22
0.01 0.01 0.02 0.06 0.08 0.04 0.01 0.00 0.00 0.00 0.00 0.00 0.00 0.00 0.00 0.00 0.00 0.00 0.00 0.00 0.00 0.00 0.00 0.00 0.00 0.00 0.00 0.00 0.00 0.00 0.00 0.00 0.00 0.01 0.01 0.01 0.01 0.01 0.01 0.03 0.06 0.10 0.14 0.17 0.18 0.19 0.20 0.24 0.26
0.01 0.02 0.04 0.06 0.04 0.02 0.00 0.00 0.00 0.00 0.00 0.00 0.00 0.00 0.00 0.00 0.00 0.00 0.00 0.00 0.00 0.00 0.00 0.00 0.00 0.00 0.00 0.00 0.00 0.00 0.00 0.00 0.01 0.01 0.01 0.02 0.03 0.02 0.03 0.06 0.09 0.14 0.20 0.24 0.28 0.28 0.30 0.31 0.28
0.01 0.01 0.02 0.05 0.04 0.01 0.00 0.00 0.00 0.00 0.00 0.00 0.00 0.00 0.00 0.00 0.00 0.00 0.00 0.00 0.00 0.00 0.00 0.00 0.00 0.00 0.00 0.00 0.00 0.00 0.00 0.01 0.01 0.02 0.02 0.02 0.04 0.05 0.07 0.11 0.16 0.20 0.24 0.28 0.36 0.42 0.44 0.47 0.46

GEFSSGP_prec_meanprecacc_132.txt.gz
Total_Precipitation_Accumulation
0.00 0.00 0.00 0.00 0.00 0.00 0.00 0.00 0.00 0.00 0.00 0.00 0.00 0.00 0.00 0.00 0.00 0.00 0.00 0.00 0.02 0.03 0.04 0.08 0.11 0.12 0.14 0.15 0.12 0.10 0.08 0.09 0.10 0.09 0.08 0.09 0.10 0.11 0.13 0.16 0.18 0.22 0.24 0.22 0.20 0.22 0.24 0.23 0.22
0.00 0.00 0.00 0.00 0.00 0.00 0.00 0.00 0.00 0.00 0.00 0.00 0.00 0.00 0.00 0.00 0.00 0.00 0.00 0.00 0.01 0.01 0.02 0.04 0.08 0.11 0.12 0.12 0.11 0.08 0.08 0.08 0.09 0.07 0.07 0.07 0.07 0.08 0.09 0.11 0.15 0.20 0.26 0.30 0.30 0.29 0.29 0.25 0.23
0.00 0.00 0.00 0.00 0.00 0.00 0.00 0.00 0.00 0.00 0.00 0.00 0.00 0.00 0.00 0.00 0.00 0.00 0.00 0.00 0.00 0.00 0.01 0.03 0.08 0.10 0.12 0.12 0.10 0.08 0.08 0.09 0.09 0.08 0.07 0.07 0.06 0.06 0.06 0.06 0.08 0.16 0.24 0.31 0.34 0.31 0.29 0.28 0.26
0.00 0.00 0.00 0.00 0.00 0.00 0.00 0.00 0.00 0.00 0.00 0.00 0.00 0.00 0.00 0.00 0.00 0.00 0.00 0.00 0.00 0.01 0.01 0.03 0.07 0.10 0.11 0.11 0.10 0.09 0.08 0.09 0.09 0.09 0.09 0.09 0.08 0.07 0.06 0.05 0.05 0.08 0.14 0.23 0.27 0.28 0.30 0.31 0.26
0.00 0.00 0.00 0.00 0.00 0.00 0.00 0.00 0.00 0.00 0.00 0.00 0.00 0.00 0.00 0.00 0.00 0.00 0.00 0.00 0.00 0.00 0.01 0.02 0.07 0.10 0.11 0.11 0.10 0.10 0.10 0.10 0.10 0.09 0.09 0.11 0.10 0.09 0.09 0.08 0.07 0.05 0.06 0.12 0.18 0.23 0.27 0.31 0.28
0.00 0.00 0.00 0.00 0.00 0.00 0.00 0.00 0.00 0.00 0.00 0.00 0.00 0.00 0.00 0.00 0.00 0.00 0.00 0.00 0.00 0.00 0.00 0.02 0.06 0.09 0.10 0.11 0.11 0.11 0.12 0.12 0.12 0.11 0.10 0.09 0.10 0.11 0.12 0.12 0.10 0.08 0.06 0.07 0.09 0.15 0.22 0.27 0.28
0.00 0.00 0.00 0.00 0.00 0.00 0.00 0.00 0.00 0.00 0.00 0.00 0.00 0.00 0.00 0.00 0.00 0.00 0.00 0.00 0.00 0.00 0.00 0.01 0.03 0.05 0.08 0.09 0.11 0.12 0.12 0.13 0.12 0.10 0.09 0.08 0.08 0.10 0.14 0.15 0.12 0.11 0.10 0.09 0.07 0.07 0.11 0.15 0.20
0.00 0.00 0.00 0.00 0.00 0.00 0.00 0.00 0.00 0.00 0.00 0.00 0.00 0.00 0.00 0.00 0.00 0.00 0.00 0.00 0.00 0.00 0.00 0.00 0.01 0.02 0.04 0.06 0.10 0.11 0.12 0.12 0.11 0.10 0.09 0.07 0.07 0.09 0.12 0.12 0.10 0.11 0.12 0.12 0.10 0.09 0.07 0.08 0.09
0.00 0.00 0.00 0.00 0.00 0.00 0.00 0.00 0.00 0.00 0.00 0.00 0.00 0.00 0.00 0.00 0.00 0.00 0.00 0.00 0.00 0.00 0.00 0.00 0.01 0.01 0.02 0.03 0.07 0.10 0.12 0.12 0.11 0.10 0.09 0.08 0.06 0.05 0.05 0.06 0.06 0.09 0.11 0.10 0.11 0.12 0.09 0.07 0.04
0.00 0.00 0.00 0.00 0.00 0.00 0.00 0.00 0.00 0.00 0.00 0.00 0.00 0.00 0.00 0.00 0.00 0.00 0.00 0.00 0.00 0.00 0.00 0.00 0.00 0.01 0.01 0.02 0.05 0.07 0.08 0.08 0.08 0.07 0.08 0.07 0.06 0.05 0.05 0.05 0.06 0.09 0.11 0.10 0.10 0.12 0.11 0.08 0.06
0.00 0.00 0.00 0.00 0.00 0.00 0.00 0.00 0.00 0.00 0.00 0.00 0.00 0.00 0.00 0.00 0.00 0.00 0.00 0.00 0.00 0.00 0.00 0.00 0.00 0.00 0.01 0.01 0.03 0.05 0.06 0.08 0.09 0.09 0.10 0.10 0.11 0.11 0.11 0.11 0.12 0.13 0.12 0.13 0.14 0.17 0.17 0.19 0.21
0.00 0.00 0.00 0.00 0.00 0.00 0.00 0.00 0.00 0.00 0.00 0.00 0.00 0.00 0.00 0.00 0.00 0.00 0.00 0.00 0.00 0.00 0.00 0.00 0.00 0.00 0.01 0.01 0.02 0.02 0.03 0.05 0.08 0.09 0.12 0.15 0.18 0.20 0.22 0.22 0.26 0.26 0.25 0.24 0.23 0.20 0.20 0.21 0.22
0.00 0.00 0.00 0.00 0.00 0.00 0.00 0.00 0.00 0.00 0.00 0.00 0.00 0.00 0.00 0.00 0.00 0.00 0.00 0.00 0.00 0.00 0.00 0.00 0.00 0.00 0.01 0.01 0.01 0.01 0.02 0.04 0.07 0.07 0.09 0.11 0.11 0.11 0.11 0.12 0.12 0.12 0.13 0.14 0.16 0.17 0.16 0.16 0.16
0.00 0.00 0.00 0.00 0.00 0.00 0.00 0.00 0.00 0.00 0.00 0.00 0.00 0.00 0.00 0.00 0.00 0.00 0.00 0.00 0.00 0.00 0.00 0.00 0.00 0.01 0.01 0.01 0.01 0.01 0.02 0.03 0.03 0.03 0.03 0.03 0.04 0.04 0.03 0.03 0.03 0.02 0.02 0.02 0.03 0.04 0.05 0.06 0.08
0.00 0.00 0.00 0.00 0.00 0.00 0.00 0.00 0.00 0.00 0.00 0.00 0.00 0.00 0.00 0.00 0.00 0.00 0.00 0.00 0.00 0.00 0.00 0.00 0.00 0.00 0.01 0.01 0.01 0.01 0.02 0.02 0.02 0.02 0.02 0.01 0.01 0.02 0.02 0.02 0.01 0.01 0.00 0.00 0.00 0.01 0.01 0.01 0.02
0.00 0.00 0.00 0.00 0.00 0.00 0.00 0.00 0.00 0.00 0.00 0.00 0.00 0.00 0.00 0.00 0.00 0.00 0.00 0.00 0.00 0.00 0.00 0.00 0.00 0.00 0.01 0.01 0.01 0.02 0.02 0.02 0.02 0.02 0.02 0.01 0.01 0.01 0.01 0.01 0.01 0.01 0.01 0.01 0.01 0.01 0.01 0.01 0.02
0.01 0.00 0.00 0.00 0.00 0.00 0.00 0.00 0.00 0.00 0.00 0.00 0.00 0.00 0.00 0.00 0.00 0.00 0.00 0.00 0.00 0.00 0.00 0.00 0.00 0.00 0.01 0.01 0.01 0.02 0.02 0.02 0.02 0.02 0.02 0.02 0.01 0.01 0.01 0.02 0.01 0.01 0.02 0.02 0.03 0.02 0.02 0.02 0.02
0.00 0.00 0.00 0.00 0.00 0.00 0.00 0.00 0.00 0.00 0.00 0.00 0.00 0.00 0.00 0.00 0.00 0.00 0.00 0.00 0.00 0.00 0.00 0.00 0.00 0.00 0.01 0.01 0.02 0.02 0.02 0.02 0.02 0.02 0.02 0.01 0.01 0.01 0.01 0.02 0.01 0.01 0.01 0.02 0.02 0.02 0.02 0.02 0.02
0.00 0.00 0.00 0.00 0.00 0.00 0.00 0.00 0.00 0.00 0.00 0.00 0.00 0.00 0.00 0.00 0.00 0.00 0.00 0.00 0.00 0.00 0.00 0.00 0.00 0.00 0.01 0.02 0.02 0.02 0.02 0.02 0.02 0.01 0.01 0.01 0.01 0.01 0.01 0.01 0.01 0.01 0.01 0.02 0.02 0.02 0.03 0.02 0.02
0.00 0.00 0.00 0.00 0.00 0.00 0.00 0.00 0.00 0.00 0.00 0.00 0.00 0.00 0.00 0.00 0.00 0.00 0.00 0.00 0.00 0.00 0.00 0.00 0.00 0.00 0.00 0.01 0.01 0.01 0.01 0.01 0.01 0.01 0.01 0.01 0.01 0.01 0.01 0.01 0.01 0.01 0.01 0.01 0.01 0.02 0.04 0.04 0.03
0.01 0.00 0.00 0.00 0.00 0.00 0.00 0.00 0.00 0.00 0.00 0.00 0.00 0.00 0.00 0.00 0.00 0.00 0.00 0.00 0.00 0.00 0.00 0.00 0.00 0.00 0.00 0.00 0.01 0.01 0.01 0.01 0.01 0.01 0.01 0.01 0.01 0.00 0.00 0.00 0.01 0.01 0.01 0.01 0.01 0.02 0.04 0.06 0.04
0.01 0.00 0.00 0.00 0.00 0.00 0.00 0.00 0.00 0.00 0.00 0.00 0.00 0.00 0.00 0.00 0.00 0.00 0.00 0.00 0.00 0.00 0.00 0.00 0.00 0.00 0.00 0.00 0.01 0.01 0.01 0.01 0.01 0.01 0.00 0.00 0.01 0.00 0.00 0.00 0.00 0.01 0.01 0.02 0.02 0.03 0.05 0.11 0.12
0.01 0.01 0.01 0.01 0.01 0.01 0.01 0.00 0.00 0.00 0.00 0.00 0.00 0.00 0.00 0.00 0.00 0.00 0.00 0.00 0.00 0.00 0.00 0.00 0.00 0.00 0.00 0.00 0.00 0.01 0.01 0.00 0.00 0.00 0.00 0.01 0.01 0.01 0.00 0.01 0.00 0.01 0.01 0.02 0.03 0.04 0.06 0.12 0.17
0.02 0.03 0.04 0.05 0.07 0.11 0.03 0.01 0.00 0.00 0.00 0.00 0.00 0.00 0.00 0.00 0.00 0.00 0.00 0.00 0.00 0.00 0.00 0.00 0.00 0.00 0.00 0.00 0.00 0.01 0.00 0.00 0.00 0.00 0.01 0.01 0.01 0.01 0.01 0.01 0.01 0.01 0.02 0.03 0.04 0.06 0.09 0.11 0.15
0.06 0.11 0.24 0.27 0.26 0.16 0.02 0.00 0.00 0.00 0.00 0.00 0.00 0.00 0.00 0.00 0.00 0.00 0.00 0.00 0.00 0.00 0.00 0.00 0.00 0.00 0.00 0.00 0.00 0.00 0.00 0.00 0.01 0.01 0.01 0.01 0.01 0.01 0.01 0.01 0.01 0.02 0.03 0.05 0.07 0.10 0.11 0.12 0.16
0.05 0.09 0.17 0.18 0.09 0.02 0.00 0.00 0.00 0.00 0.00 0.00 0.00 0.00 0.00 0.00 0.00 0.00 0.00 0.00 0.00 0.00 0.00 0.00 0.00 0.00 0.00 0.00 0.00 0.00 0.00 0.00 0.01 0.01 0.01 0.02 0.02 0.02 0.01 0.01 0.01 0.02 0.04 0.07 0.10 0.13 0.14 0.16 0.19
0.04 0.05 0.04 0.06 0.07 0.03 0.01 0.00 0.00 0.00 0.00 0.00 0.00 0.00 0.00 0.00 0.00 0.00 0.00 0.00 0.00 0.00 0.00 0.00 0.00 0.00 0.00 0.00 0.00 0.00 0.00 0.00 0.00 0.01 0.01 0.02 0.02 0.02 0.01 0.02 0.03 0.05 0.07 0.10 0.13 0.16 0.17 0.21 0.22
0.03 0.04 0.08 0.17 0.21 0.10 0.03 0.00 0.00 0.00 0.00 0.00 0.00 0.00 0.00 0.00 0.00 0.00 0.00 0.00 0.00 0.00 0.00 0.00 0.00 0.00 0.00 0.00 0.00 0.00 0.00 0.00 0.00 0.01 0.01 0.01 0.02 0.02 0.02 0.03 0.06 0.10 0.14 0.17 0.19 0.20 0.20 0.24 0.26
0.06 0.08 0.13 0.17 0.12 0.05 0.02 0.00 0.00 0.00 0.00 0.00 0.00 0.00 0.00 0.00 0.00 0.00 0.00 0.00 0.00 0.00 0.00 0.00 0.00 0.00 0.00 0.00 0.00 0.00 0.00 0.00 0.01 0.01 0.01 0.02 0.03 0.03 0.04 0.06 0.10 0.15 0.21 0.25 0.28 0.29 0.30 0.31 0.29
0.06 0.08 0.10 0.15 0.13 0.04 0.01 0.00 0.00 0.00 0.00 0.00 0.00 0.00 0.00 0.00 0.00 0.00 0.00 0.00 0.00 0.00 0.00 0.00 0.00 0.00 0.00 0.00 0.00 0.00 0.00 0.01 0.02 0.02 0.02 0.02 0.04 0.05 0.08 0.12 0.16 0.21 0.25 0.28 0.36 0.43 0.45 0.47 0.46

GEFSSGP_prec_meanprecacc_138.txt.gz
Total_Precipitation_Accumulation
0.00 0.00 0.00 0.00 0.00 0.00 0.00 0.00 0.00 0.00 0.00 0.00 0.00 0.00 0.00 0.00 0.00 0.00 0.00 0.00 0.02 0.03 0.04 0.09 0.12 0.12 0.15 0.15 0.13 0.11 0.09 0.10 0.11 0.10 0.09 0.10 0.10 0.12 0.14 0.17 0.19 0.22 0.25 0.22 0.20 0.22 0.25 0.24 0.22
0.00 0.00 0.00 0.00 0.00 0.00 0.00 0.00 0.00 0.00 0.00 0.00 0.00 0.00 0.00 0.00 0.00 0.00 0.00 0.00 0.01 0.01 0.02 0.05 0.09 0.12 0.13 0.13 0.11 0.09 0.08 0.09 0.09 0.08 0.07 0.08 0.08 0.09 0.10 0.12 0.15 0.21 0.27 0.30 0.30 0.30 0.29 0.25 0.24
0.00 0.00 0.00 0.00 0.00 0.00 0.00 0.00 0.00 0.00 0.00 0.00 0.00 0.00 0.00 0.00 0.00 0.00 0.00 0.00 0.00 0.00 0.01 0.04 0.09 0.11 0.13 0.13 0.11 0.09 0.08 0.09 0.09 0.08 0.08 0.08 0.07 0.07 0.07 0.07 0.09 0.16 0.24 0.31 0.34 0.32 0.29 0.28 0.26
0.00 0.00 0.00 0.00 0.00 0.00 0.00 0.00 0.00 0.00 0.00 0.00 0.00 0.00 0.00 0.00 0.00 0.00 0.00 0.00 0.00 0.01 0.01 0.04 0.09 0.11 0.12 0.13 0.11 0.09 0.09 0.10 0.10 0.09 0.09 0.10 0.09 0.08 0.06 0.06 0.05 0.08 0.14 0.23 0.28 0.28 0.30 0.31 0.26
0.00 0.00 0.00 0.00 0.00 0.00 0.00 0.00 0.00 0.00 0.00 0.00 0.00 0.00 0.00 0.00 0.00 0.00 0.00 0.00 0.00 0.00 0.01 0.04 0.09 0.12 0.12 0.13 0.11 0.10 0.10 0.10 0.10 0.10 0.10 0.11 0.11 0.10 0.09 0.08 0.07 0.05 0.06 0.12 0.18 0.23 0.28 0.31 0.28
0.00 0.00 0.00 0.00 0.00 0.00 0.00 0.00 0.00 0.00 0.00 0.00 0.00 0.00 0.00 0.00 0.00 0.00 0.00 0.00 0.00 0.00 0.01 0.03 0.08 0.11 0.12 0.12 0.12 0.12 0.12 0.13 0.12 0.11 0.11 0.10 0.10 0.11 0.12 0.12 0.10 0.08 0.06 0.07 0.10 0.15 0.22 0.27 0.28
0.00 0.00 0.00 0.00 0.00 0.00 0.00 0.00 0.00 0.00 0.00 0.00 0.00 0.00 0.00 0.00 0.00 0.00 0.00 0.00 0.00 0.00 0.00 0.02 0.05 0.07 0.11 0.12 0.12 0.12 0.13 0.13 0.12 0.11 0.09 0.08 0.08 0.10 0.14 0.15 0.13 0.11 0.10 0.09 0.07 0.07 0.11 0.15 0.20
0.00 0.00 0.00 0.00 0.00 0.00 0.00 0.00 0.00 0.00 0.00 0.00 0.00 0.00 0.00 0.00 0.00 0.00 0.00 0.00 0.00 0.00 0.00 0.01 0.03 0.03 0.06 0.09 0.11 0.12 0.13 0.12 0.12 0.11 0.09 0.08 0.08 0.09 0.12 0.13 0.10 0.11 0.13 0.12 0.10 0.09 0.08 0.08 0.09
0.00 0.00 0.00 0.00 0.00 0.00 0.00 0.00 0.00 0.00 0.00 0.00 0.00 0.00 0.00 0.00 0.00 0.00 0.00 0.00 0.00 0.01 0.01 0.01 0.02 0.02 0.04 0.05 0.08 0.11 0.13 0.12 0.12 0.10 0.09 0.08 0.06 0.05 0.05 0.06 0.06 0.09 0.11 0.10 0.11 0.12 0.09 0.07 0.04
0.00 0.00 0.00 0.00 0.00 0.00 0.00 0.00 0.00 0.00 0.00 0.00 0.00 0.00 0.00 0.00 0.00 0.00 0.00 0.00 0.00 0.01 0.01 0.01 0.01 0.02 0.03 0.03 0.06 0.08 0.09 0.09 0.08 0.08 0.08 0.07 0.06 0.05 0.05 0.05 0.06 0.09 0.11 0.10 0.11 0.12 0.11 0.08 0.06
0.00 0.00 0.00 0.00 0.00 0.00 0.00 0.00 0.00 0.00 0.00 0.00 0.00 0.00 0.00 0.00 0.00 0.00 0.00 0.00 0.00 0.00 0.00 0.01 0.01 0.01 0.02 0.02 0.04 0.06 0.07 0.08 0.09 0.10 0.10 0.10 0.11 0.11 0.11 0.11 0.12 0.13 0.12 0.13 0.14 0.17 0.17 0.19 0.21
0.00 0.00 0.00 0.00 0.00 0.00 0.00 0.00 0.00 0.00 0.00 0.00 0.00 0.00 0.00 0.00 0.00 0.00 0.00 0.00 0.00 0.00 0.00 0.01 0.01 0.01 0.01 0.01 0.02 0.03 0.03 0.06 0.08 0.09 0.12 0.15 0.18 0.20 0.22 0.22 0.26 0.26 0.25 0.24 0.23 0.20 0.20 0.21 0.22
0.00 0.00 0.00 0.00 0.00 0.00 0.00 0.00 0.00 0.00 0.00 0.00 0.00 0.00 0.00 0.00 0.00 0.00 0.00 0.00 0.00 0.00 0.00 0.00 0.01 0.01 0.01 0.01 0.02 0.02 0.02 0.04 0.07 0.07 0.09 0.11 0.11 0.11 0.11 0.12 0.12 0.12 0.14 0.14 0.16 0.17 0.16 0.16 0.16
0.00 0.00 0.00 0.00 0.00 0.00 0.00 0.00 0.00 0.00 0.00 0.00 0.00 0.00 0.00 0.00 0.00 0.00 0.00 0.00 0.00 0.00 0.00 0.00 0.01 0.01 0.01 0.01 0.01 0.01 0.02 0.03 0.03 0.03 0.03 0.04 0.04 0.04 0.03 0.03 0.03 0.02 0.02 0.02 0.03 0.04 0.05 0.06 0.08
0.01 0.01 0.00 0.00 0.00 0.00 0.00 0.00 0.00 0.00 0.00 0.00 0.00 0.00 0.00 0.00 0.00 0.00 0.00 0.00 0.00 0.00 0.00 0.00 0.00 0.01 0.01 0.01 0.02 0.02 0.02 0.02 0.02 0.02 0.02 0.01 0.01 0.02 0.02 0.02 0.01 0.01 0.00 0.00 0.00 0.01 0.01 0.01 0.02
0.02 0.02 0.01 0.00 0.00 0.00 0.00 0.00 0.00 0.00 0.00 0.00 0.00 0.00 0.00 0.00 0.00 0.00 0.00 0.00 0.00 0.00 0.00 0.00 0.00 0.01 0.01 0.01 0.02 0.02 0.02 0.02 0.02 0.02 0.02 0.01 0.01 0.01 0.01 0.01 0.01 0.01 0.01 0.01 0.01 0.01 0.01 0.01 0.02
0.05 0.02 0.01 0.00 0.00 0.00 0.00 0.00 0.00 0.00 0.00 0.00 0.00 0.00 0.00 0.00 0.00 0.00 0.00 0.00 0.00 0.00 0.00 0.00 0.00 0.00 0.01 0.01 0.02 0.02 0.02 0.02 0.02 0.02 0.02 0.02 0.01 0.01 0.01 0.02 0.01 0.01 0.02 0.02 0.03 0.03 0.02 0.02 0.02
0.04 0.01 0.00 0.00 0.00 0.00 0.00 0.00 0.00 0.00 0.00 0.00 0.00 0.00 0.00 0.00 0.00 0.00 0.00 0.00 0.00 0.00 0.00 0.00 0.00 0.00 0.01 0.02 0.03 0.03 0.03 0.02 0.02 0.02 0.02 0.01 0.01 0.01 0.01 0.02 0.01 0.01 0.01 0.02 0.02 0.02 0.02 0.02 0.02
0.01 0.01 0.00 0.00 0.00 0.00 0.00 0.00 0.00 0.00 0.00 0.00 0.00 0.00 0.00 0.00 0.00 0.00 0.00 0.00 0.00 0.00 0.00 0.00 0.00 0.00 0.01 0.02 0.03 0.03 0.03 0.02 0.02 0.02 0.01 0.01 0.01 0.01 0.01 0.01 0.01 0.01 0.01 0.02 0.02 0.02 0.03 0.02 0.02
0.03 0.02 0.01 0.01 0.00 0.00 0.00 0.00 0.00 0.00 0.00 0.00 0.00 0.00 0.00 0.00 0.00 0.00 0.00 0.00 0.00 0.00 0.00 0.00 0.00 0.00 0.01 0.01 0.01 0.01 0.01 0.01 0.01 0.01 0.01 0.01 0.01 0.01 0.01 0.01 0.01 0.01 0.01 0.01 0.01 0.02 0.05 0.04 0.03
0.05 0.04 0.02 0.01 0.01 0.01 0.00 0.00 0.00 0.00 0.00 0.00 0.00 0.00 0.00 0.00 0.00 0.00 0.00 0.00 0.00 0.00 0.00 0.00 0.00 0.00 0.00 0.00 0.01 0.01 0.02 0.02 0.02 0.02 0.01 0.01 0.01 0.01 0.00 0.01 0.01 0.01 0.01 0.01 0.01 0.02 0.04 0.06 0.04
0.06 0.04 0.03 0.02 0.03 0.03 0.01 0.01 0.00 0.00 0.00 0.00 0.00 0.00 0.00 0.00 0.00 0.00 0.00 0.00 0.00 0.00 0.00 0.00 0.00 0.00 0.00 0.00 0.01 0.01 0.01 0.01 0.01 0.01 0.01 0.01 0.01 0.01 0.01 0.01 0.00 0.01 0.01 0.02 0.02 0.03 0.05 0.11 0.12
0.05 0.03 0.04 0.05 0.05 0.06 0.04 0.03 0.00 0.00 0.00 0.00 0.00 0.00 0.00 0.00 0.00 0.00 0.00 0.00 0.00 0.00 0.00 0.00 0.00 0.00 0.00 0.00 0.00 0.01 0.01 0.00 0.00 0.00 0.00 0.01 0.01 0.01 0.01 0.01 0.01 0.01 0.01 0.02 0.03 0.04 0.06 0.12 0.17
0.06 0.08 0.10 0.12 0.19 0.29 0.08 0.03 0.01 0.00 0.00 0.00 0.00 0.00 0.00 0.00 0.00 0.00 0.00 0.00 0.00 0.00 0.00 0.00 0.00 0.00 0.00 0.00 0.00 0.01 0.00 0.00 0.00 0.00 0.01 0.01 0.01 0.01 0.01 0.01 0.01 0.01 0.02 0.03 0.04 0.06 0.09 0.11 0.15
0.18 0.27 0.49 0.56 0.58 0.35 0.04 0.02 0.01 0.00 0.00 0.00 0.00 0.00 0.00 0.00 0.00 0.00 0.00 0.00 0.00 0.00 0.00 0.00 0.00 0.00 0.00 0.00 0.00 0.00 0.00 0.00 0.01 0.01 0.01 0.01 0.02 0.01 0.01 0.01 0.02 0.02 0.03 0.05 0.07 0.10 0.11 0.13 0.17
0.20 0.24 0.37 0.37 0.22 0.06 0.01 0.01 0.00 0.00 0.00 0.00 0.00 0.00 0.00 0.00 0.00 0.00 0.00 0.00 0.00 0.00 0.00 0.00 0.00 0.00 0.00 0.00 0.00 0.00 0.00 0.00 0.01 0.01 0.01 0.02 0.02 0.02 0.01 0.01 0.02 0.03 0.05 0.08 0.11 0.13 0.14 0.16 0.19
0.18 0.18 0.13 0.15 0.13 0.07 0.03 0.01 0.00 0.00 0.00 0.00 0.00 0.00 0.00 0.00 0.00 0.00 0.00 0.00 0.00 0.00 0.00 0.00 0.00 0.00 0.00 0.00 0.00 0.00 0.00 0.00 0.00 0.01 0.01 0.02 0.02 0.02 0.01 0.02 0.03 0.05 0.08 0.11 0.13 0.16 0.18 0.21 0.23
0.14 0.17 0.19 0.33 0.35 0.17 0.06 0.01 0.00 0.00 0.00 0.00 0.00 0.00 0.00 0.00 0.00 0.00 0.00 0.00 0.00 0.00 0.00 0.00 0.00 0.00 0.00 0.00 0.00 0.00 0.00 0.00 0.00 0.01 0.01 0.01 0.02 0.02 0.02 0.04 0.07 0.11 0.15 0.17 0.19 0.20 0.21 0.25 0.26
0.17 0.23 0.32 0.33 0.23 0.12 0.06 0.01 0.00 0.00 0.00 0.00 0.00 0.00 0.00 0.00 0.00 0.00 0.00 0.00 0.00 0.00 0.00 0.00 0.00 0.00 0.00 0.00 0.00 0.00 0.00 0.00 0.01 0.02 0.02 0.02 0.03 0.03 0.04 0.07 0.10 0.15 0.21 0.25 0.29 0.29 0.31 0.31 0.29
0.20 0.20 0.26 0.31 0.25 0.09 0.04 0.02 0.00 0.00 0.00 0.00 0.00 0.00 0.00 0.00 0.00 0.00 0.00 0.00 0.00 0.00 0.00 0.00 0.00 0.00 0.00 0.00 0.00 0.00 0.00 0.01 0.02 0.02 0.02 0.02 0.04 0.06 0.08 0.12 0.17 0.21 0.25 0.29 0.37 0.43 0.45 0.48 0.47

GEFSSGP_prec_meanprecacc_144.txt.gz
Total_Precipitation_Accumulation
0.00 0.00 0.00 0.00 0.00 0.00 0.00 0.00 0.00 0.00 0.00 0.00 0.00 0.00 0.00 0.00 0.00 0.00 0.00 0.00 0.02 0.03 0.04 0.09 0.12 0.13 0.16 0.17 0.15 0.12 0.09 0.11 0.12 0.11 0.10 0.10 0.11 0.13 0.15 0.18 0.20 0.23 0.25 0.23 0.21 0.23 0.25 0.24 0.22
0.00 0.00 0.00 0.00 0.00 0.00 0.00 0.00 0.00 0.00 0.00 0.00 0.00 0.00 0.00 0.00 0.00 0.00 0.00 0.00 0.01 0.01 0.02 0.05 0.10 0.12 0.14 0.14 0.13 0.10 0.09 0.10 0.10 0.09 0.08 0.08 0.09 0.10 0.11 0.12 0.16 0.21 0.27 0.31 0.31 0.30 0.30 0.26 0.24
0.00 0.00 0.00 0.00 0.00 0.00 0.00 0.00 0.00 0.00 0.00 0.00 0.00 0.00 0.00 0.00 0.00 0.00 0.00 0.00 0.00 0.00 0.01 0.04 0.09 0.12 0.14 0.14 0.13 0.10 0.09 0.10 0.10 0.09 0.08 0.09 0.08 0.08 0.08 0.07 0.09 0.16 0.25 0.31 0.34 0.32 0.30 0.28 0.26
0.00 0.00 0.00 0.00 0.00 0.00 0.00 0.00 0.00 0.00 0.00 0.00 0.00 0.00 0.00 0.00 0.00 0.00 0.00 0.00 0.00 0.01 0.01 0.04 0.09 0.12 0.13 0.14 0.12 0.10 0.10 0.11 0.11 0.10 0.10 0.11 0.11 0.09 0.07 0.06 0.05 0.08 0.15 0.23 0.28 0.28 0.30 0.31 0.26
0.01 0.00 0.00 0.00 0.00 0.00 0.00 0.00 0.00 0.00 0.00 0.00 0.00 0.00 0.00 0.00 0.00 0.00 0.00 0.00 0.00 0.01 0.01 0.04 0.09 0.12 0.13 0.14 0.12 0.11 0.11 0.11 0.11 0.11 0.11 0.13 0.12 0.10 0.09 0.08 0.07 0.05 0.07 0.12 0.19 0.23 0.28 0.31 0.28
0.02 0.00 0.00 0.00 0.00 0.00 0.00 0.00 0.00 0.00 0.00 0.00 0.00 0.00 0.00 0.00 0.00 0.00 0.00 0.00 0.00 0.00 0.01 0.04 0.09 0.12 0.13 0.14 0.14 0.13 0.13 0.14 0.13 0.12 0.12 0.11 0.11 0.11 0.12 0.12 0.10 0.08 0.06 0.07 0.10 0.16 0.22 0.27 0.28
0.02 0.01 0.00 0.00 0.00 0.00 0.00 0.00 0.00 0.00 0.00 0.00 0.00 0.00 0.00 0.00 0.00 0.00 0.00 0.00 0.00 0.00 0.01 0.03 0.06 0.08 0.12 0.13 0.13 0.13 0.14 0.14 0.13 0.12 0.10 0.09 0.09 0.11 0.15 0.15 0.13 0.11 0.10 0.09 0.07 0.08 0.11 0.15 0.20
0.02 0.01 0.00 0.00 0.00 0.00 0.00 0.00 0.00 0.00 0.00 0.00 0.00 0.00 0.00 0.00 0.00 0.00 0.00 0.00 0.00 0.00 0.01 0.02 0.04 0.05 0.08 0.10 0.12 0.13 0.13 0.13 0.12 0.11 0.09 0.08 0.08 0.10 0.12 0.13 0.10 0.11 0.13 0.12 0.11 0.09 0.08 0.08 0.09
0.04 0.03 0.01 0.00 0.00 0.00 0.00 0.00 0.00 0.00 0.00 0.00 0.00 0.00 0.00 0.00 0.00 0.00 0.00 0.00 0.00 0.01 0.01 0.02 0.03 0.04 0.06 0.08 0.09 0.11 0.13 0.13 0.12 0.10 0.09 0.08 0.06 0.05 0.05 0.06 0.06 0.09 0.11 0.10 0.11 0.12 0.09 0.07 0.04
0.05 0.02 0.00 0.00 0.00 0.00 0.00 0.00 0.00 0.00 0.00 0.00 0.00 0.00 0.00 0.00 0.00 0.00 0.00 0.00 0.00 0.01 0.01 0.01 0.02 0.03 0.05 0.05 0.07 0.09 0.10 0.10 0.08 0.08 0.08 0.07 0.07 0.05 0.05 0.05 0.06 0.09 0.11 0.10 0.11 0.12 0.11 0.08 0.06
0.02 0.01 0.00 0.00 0.00 0.00 0.00 0.00 0.00 0.00 0.00 0.00 0.00 0.00 0.00 0.00 0.00 0.00 0.00 0.00 0.00 0.00 0.01 0.01 0.02 0.03 0.04 0.04 0.05 0.07 0.08 0.09 0.10 0.10 0.10 0.10 0.11 0.11 0.11 0.11 0.12 0.13 0.13 0.13 0.14 0.17 0.17 0.19 0.21
0.02 0.00 0.00 0.00 0.00 0.00 0.00 0.00 0.00 0.00 0.00 0.00 0.00 0.00 0.00 0.00 0.00 0.00 0.00 0.00 0.00 0.00 0.00 0.01 0.01 0.03 0.03 0.03 0.03 0.04 0.04 0.07 0.09 0.10 0.12 0.15 0.18 0.20 0.22 0.22 0.26 0.26 0.25 0.24 0.23 0.20 0.20 0.21 0.22
0.03 0.01 0.00 0.00 0.00 0.00 0.00 0.00 0.00 0.00 0.00 0.00 0.00 0.00 0.00 0.00 0.00 0.00 0.00 0.00 0.00 0.00 0.00 0.00 0.01 0.02 0.03 0.03 0.03 0.03 0.03 0.05 0.07 0.08 0.10 0.11 0.11 0.11 0.11 0.12 0.12 0.12 0.14 0.14 0.16 0.17 0.16 0.16 0.16
0.03 0.01 0.01 0.00 0.00 0.00 0.00 0.00 0.00 0.00 0.00 0.00 0.00 0.00 0.00 0.00 0.00 0.00 0.00 0.00 0.00 0.00 0.00 0.00 0.01 0.01 0.02 0.02 0.02 0.02 0.02 0.03 0.04 0.04 0.04 0.04 0.04 0.04 0.03 0.03 0.03 0.02 0.02 0.02 0.03 0.04 0.05 0.06 0.08
0.05 0.04 0.02 0.01 0.00 0.00 0.00 0.00 0.00 0.00 0.00 0.00 0.00 0.00 0.00 0.00 0.00 0.00 0.00 0.00 0.00 0.00 0.00 0.00 0.00 0.01 0.02 0.02 0.02 0.02 0.02 0.02 0.03 0.02 0.02 0.01 0.01 0.02 0.02 0.02 0.01 0.01 0.00 0.00 0.00 0.01 0.01 0.01 0.02
0.09 0.10 0.06 0.01 0.00 0.00 0.01 0.01 0.00 0.00 0.00 0.00 0.00 0.00 0.00 0.00 0.00 0.00 0.00 0.00 0.00 0.00 0.00 0.00 0.01 0.01 0.01 0.02 0.02 0.02 0.02 0.02 0.02 0.02 0.02 0.01 0.01 0.01 0.01 0.01 0.01 0.01 0.01 0.01 0.01 0.01 0.01 0.01 0.02
0.15 0.12 0.05 0.01 0.00 0.00 0.01 0.00 0.00 0.00 0.00 0.00 0.00 0.00 0.00 0.00 0.00 0.00 0.00 0.00 0.00 0.00 0.00 0.00 0.00 0.01 0.01 0.02 0.02 0.02 0.02 0.02 0.02 0.02 0.02 0.02 0.01 0.01 0.01 0.02 0.01 0.01 0.02 0.02 0.03 0.03 0.02 0.02 0.02
0.13 0.06 0.03 0.01 0.00 0.00 0.00 0.00 0.00 0.00 0.00 0.00 0.00 0.00 0.00 0.00 0.00 0.00 0.00 0.00 0.00 0.00 0.00 0.00 0.00 0.00 0.01 0.02 0.03 0.03 0.03 0.03 0.02 0.02 0.02 0.01 0.01 0.01 0.01 0.02 0.01 0.01 0.01 0.02 0.02 0.02 0.02 0.02 0.02
0.05 0.03 0.02 0.01 0.00 0.01 0.01 0.00 0.00 0.00 0.00 0.00 0.00 0.00 0.00 0.00 0.00 0.00 0.00 0.00 0.00 0.00 0.00 0.00 0.00 0.00 0.01 0.02 0.03 0.03 0.03 0.03 0.02 0.02 0.01 0.01 0.01 0.01 0.01 0.01 0.01 0.01 0.01 0.02 0.02 0.02 0.03 0.02 0.02
0.08 0.08 0.05 0.02 0.01 0.02 0.02 0.01 0.00 0.00 0.00 0.00 0.00 0.00 0.00 0.00 0.00 0.00 0.00 0.00 0.00 0.00 0.00 0.00 0.00 0.00 0.01 0.01 0.01 0.01 0.01 0.01 0.01 0.01 0.01 0.01 0.01 0.01 0.01 0.01 0.01 0.01 0.01 0.01 0.01 0.02 0.05 0.04 0.03
0.12 0.10 0.07 0.04 0.03 0.03 0.03 0.02 0.00 0.00 0.00 0.00 0.00 0.00 0.00 0.00 0.00 0.00 0.00 0.00 0.00 0.00 0.00 0.00 0.00 0.00 0.00 0.00 0.01 0.01 0.02 0.02 0.02 0.02 0.01 0.01 0.01 0.01 0.00 0.01 0.01 0.01 0.01 0.01 0.01 0.02 0.04 0.06 0.04
0.14 0.07 0.07 0.07 0.08 0.09 0.06 0.05 0.01 0.00 0.00 0.00 0.00 0.00 0.00 0.00 0.00 0.00 0.00 0.00 0.00 0.00 0.00 0.00 0.00 0.00 0.00 0.00 0.01 0.01 0.01 0.01 0.01 0.01 0.01 0.01 0.01 0.01 0.01 0.01 0.01 0.01 0.01 0.02 0.02 0.03 0.05 0.11 0.12
0.11 0.06 0.08 0.11 0.15 0.17 0.10 0.09 0.02 0.00 0.00 0.00 0.00 0.00 0.00 0.00 0.00 0.00 0.00 0.00 0.00 0.00 0.00 0.00 0.00 0.00 0.00 0.00 0.00 0.01 0.01 0.00 0.00 0.00 0.01 0.01 0.01 0.01 0.01 0.01 0.01 0.01 0.01 0.02 0.03 0.04 0.06 0.12 0.17
0.12 0.14 0.19 0.24 0.38 0.53 0.16 0.09 0.04 0.00 0.00 0.00 0.00 0.00 0.00 0.00 0.00 0.00 0.00 0.00 0.00 0.00 0.00 0.00 0.00 0.00 0.00 0.00 0.00 0.01 0.00 0.00 0.00 0.00 0.01 0.01 0.01 0.01 0.01 0.01 0.01 0.01 0.02 0.03 0.04 0.07 0.09 0.11 0.15
0.28 0.46 0.77 0.86 0.91 0.58 0.09 0.06 0.03 0.00 0.00 0.00 0.00 0.00 0.00 0.00 0.00 0.00 0.00 0.00 0.00 0.00 0.00 0.00 0.00 0.00 0.00 0.00 0.00 0.00 0.00 0.00 0.01 0.01 0.01 0.01 0.02 0.01 0.01 0.01 0.02 0.02 0.03 0.05 0.07 0.10 0.11 0.13 0.17
0.32 0.43 0.61 0.57 0.35 0.11 0.03 0.04 0.01 0.00 0.00 0.00 0.00 0.00 0.00 0.00 0.00 0.00 0.00 0.00 0.00 0.00 0.00 0.00 0.00 0.00 0.00 0.00 0.00 0.00 0.00 0.00 0.01 0.01 0.01 0.02 0.02 0.02 0.01 0.01 0.02 0.03 0.05 0.08 0.11 0.13 0.14 0.16 0.19
0.29 0.30 0.24 0.29 0.22 0.11 0.06 0.02 0.00 0.00 0.00 0.00 0.00 0.00 0.00 0.00 0.00 0.00 0.00 0.00 0.00 0.00 0.00 0.00 0.00 0.00 0.00 0.01 0.00 0.00 0.00 0.00 0.00 0.01 0.01 0.02 0.02 0.02 0.01 0.02 0.04 0.05 0.08 0.11 0.13 0.16 0.18 0.21 0.23
0.23 0.27 0.31 0.51 0.51 0.27 0.11 0.02 0.01 0.00 0.00 0.00 0.00 0.00 0.00 0.00 0.00 0.00 0.00 0.00 0.00 0.00 0.00 0.00 0.00 0.00 0.00 0.00 0.01 0.01 0.00 0.00 0.00 0.01 0.01 0.01 0.02 0.02 0.02 0.04 0.07 0.11 0.15 0.17 0.19 0.21 0.21 0.25 0.27
0.25 0.36 0.49 0.50 0.35 0.22 0.13 0.04 0.01 0.00 0.00 0.00 0.00 0.00 0.00 0.00 0.00 0.00 0.00 0.00 0.00 0.00 0.00 0.00 0.00 0.00 0.00 0.00 0.00 0.01 0.01 0.00 0.01 0.02 0.02 0.02 0.03 0.03 0.04 0.07 0.10 0.15 0.21 0.25 0.29 0.30 0.31 0.32 0.30
0.31 0.33 0.40 0.49 0.37 0.15 0.11 0.06 0.01 0.01 0.00 0.00 0.00 0.00 0.00 0.00 0.00 0.00 0.00 0.00 0.00 0.00 0.00 0.00 0.00 0.00 0.00 0.00 0.00 0.00 0.01 0.01 0.02 0.02 0.02 0.03 0.04 0.06 0.08 0.12 0.17 0.21 0.25 0.29 0.37 0.43 0.45 0.48 0.47

GEFSSGP_prec_meanprecacc_150.txt.gz
Total_Precipitation_Accumulation
0.00 0.00 0.00 0.00 0.00 0.00 0.00 0.00 0.00 0.00 0.00 0.00 0.00 0.00 0.00 0.00 0.00 0.00 0.00 0.00 0.02 0.03 0.05 0.10 0.13 0.14 0.17 0.19 0.16 0.13 0.10 0.12 0.12 0.11 0.10 0.11 0.12 0.14 0.16 0.18 0.21 0.24 0.27 0.25 0.22 0.24 0.26 0.24 0.23
0.00 0.00 0.00 0.00 0.00 0.00 0.00 0.00 0.00 0.00 0.00 0.00 0.00 0.00 0.00 0.00 0.00 0.00 0.00 0.00 0.01 0.01 0.02 0.05 0.11 0.14 0.16 0.16 0.14 0.11 0.10 0.10 0.11 0.09 0.08 0.09 0.10 0.11 0.12 0.13 0.17 0.23 0.28 0.32 0.31 0.30 0.30 0.26 0.24
0.00 0.01 0.01 0.01 0.00 0.00 0.00 0.00 0.00 0.00 0.00 0.00 0.00 0.00 0.00 0.00 0.00 0.00 0.00 0.00 0.00 0.00 0.02 0.05 0.10 0.13 0.15 0.16 0.14 0.11 0.10 0.11 0.10 0.09 0.09 0.09 0.10 0.09 0.09 0.08 0.10 0.17 0.25 0.31 0.35 0.32 0.30 0.28 0.27
0.01 0.02 0.02 0.00 0.00 0.00 0.00 0.00 0.00 0.00 0.00 0.00 0.00 0.00 0.00 0.00 0.00 0.00 0.00 0.00 0.00 0.01 0.01 0.05 0.10 0.14 0.15 0.15 0.13 0.11 0.11 0.11 0.11 0.10 0.11 0.13 0.12 0.10 0.08 0.07 0.06 0.09 0.15 0.23 0.28 0.28 0.30 0.32 0.26
0.02 0.03 0.02 0.01 0.00 0.00 0.00 0.00 0.00 0.00 0.00 0.00 0.00 0.00 0.00 0.00 0.00 0.00 0.00 0.00 0.00 0.01 0.01 0.05 0.11 0.14 0.15 0.15 0.14 0.12 0.12 0.12 0.12 0.12 0.13 0.14 0.13 0.11 0.10 0.09 0.07 0.06 0.07 0.12 0.19 0.23 0.28 0.31 0.28
0.06 0.04 0.02 0.00 0.00 0.00 0.00 0.00 0.00 0.00 0.00 0.00 0.00 0.00 0.00 0.00 0.00 0.00 0.00 0.00 0.00 0.00 0.01 0.04 0.10 0.13 0.15 0.15 0.15 0.14 0.14 0.15 0.14 0.13 0.14 0.12 0.12 0.12 0.13 0.13 0.11 0.08 0.07 0.07 0.10 0.16 0.22 0.27 0.28
0.06 0.04 0.01 0.00 0.00 0.00 0.00 0.00 0.00 0.00 0.00 0.00 0.00 0.00 0.00 0.00 0.00 0.00 0.00 0.00 0.00 0.00 0.01 0.04 0.07 0.10 0.13 0.14 0.14 0.14 0.15 0.15 0.14 0.13 0.12 0.10 0.09 0.11 0.15 0.16 0.13 0.11 0.10 0.10 0.07 0.08 0.12 0.15 0.20
0.07 0.07 0.02 0.00 0.00 0.00 0.00 0.00 0.00 0.00 0.00 0.00 0.00 0.00 0.00 0.00 0.00 0.00 0.00 0.00 0.00 0.00 0.01 0.03 0.05 0.06 0.09 0.12 0.13 0.14 0.14 0.14 0.13 0.12 0.10 0.08 0.08 0.10 0.13 0.13 0.11 0.11 0.13 0.13 0.11 0.09 0.08 0.08 0.09
0.12 0.12 0.03 0.00 0.00 0.00 0.00 0.00 0.00 0.00 0.00 0.00 0.00 0.00 0.00 0.00 0.00 0.00 0.00 0.00 0.01 0.02 0.02 0.03 0.04 0.05 0.07 0.09 0.10 0.12 0.14 0.14 0.13 0.11 0.10 0.08 0.06 0.05 0.06 0.06 0.07 0.10 0.12 0.11 0.11 0.12 0.09 0.07 0.04
0.13 0.08 0.02 0.00 0.00 0.00 0.00 0.00 0.00 0.00 0.00 0.00 0.00 0.00 0.00 0.00 0.00 0.00 0.00 0.00 0.01 0.02 0.02 0.02 0.03 0.04 0.06 0.06 0.08 0.10 0.10 0.10 0.08 0.08 0.08 0.08 0.07 0.05 0.05 0.05 0.06 0.10 0.11 0.10 0.11 0.12 0.11 0.08 0.06
0.08 0.03 0.00 0.00 0.00 0.00 0.00 0.00 0.00 0.00 0.00 0.00 0.00 0.00 0.00 0.00 0.00 0.00 0.00 0.00 0.00 0.01 0.01 0.01 0.02 0.03 0.05 0.04 0.06 0.08 0.08 0.10 0.10 0.10 0.11 0.10 0.11 0.11 0.11 0.11 0.12 0.13 0.13 0.13 0.14 0.17 0.17 0.19 0.21
0.06 0.02 0.01 0.00 0.00 0.00 0.00 0.00 0.00 0.00 0.00 0.00 0.00 0.00 0.00 0.00 0.00 0.00 0.00 0.00 0.01 0.01 0.01 0.01 0.02 0.03 0.04 0.03 0.04 0.04 0.04 0.07 0.09 0.10 0.12 0.15 0.18 0.20 0.22 0.22 0.26 0.26 0.25 0.24 0.23 0.20 0.20 0.21 0.22
0.07 0.02 0.01 0.01 0.01 0.01 0.01 0.00 0.00 0.00 0.00 0.00 0.00 0.00 0.00 0.00 0.00 0.00 0.00 0.00 0.01 0.01 0.01 0.01 0.02 0.02 0.03 0.03 0.03 0.03 0.03 0.05 0.07 0.08 0.10 0.11 0.11 0.11 0.11 0.12 0.12 0.12 0.14 0.14 0.16 0.17 0.16 0.16 0.16
0.05 0.04 0.03 0.02 0.02 0.01 0.01 0.01 0.00 0.00 0.00 0.00 0.00 0.00 0.00 0.00 0.00 0.00 0.00 0.01 0.01 0.01 0.01 0.01 0.02 0.02 0.03 0.03 0.03 0.02 0.03 0.03 0.04 0.04 0.04 0.04 0.04 0.04 0.03 0.03 0.03 0.02 0.02 0.02 0.03 0.04 0.05 0.06 0.08
0.07 0.09 0.07 0.03 0.02 0.02 0.03 0.02 0.00 0.00 0.00 0.00 0.00 0.00 0.00 0.00 0.00 0.00 0.00 0.00 0.01 0.01 0.01 0.02 0.02 0.03 0.03 0.03 0.03 0.02 0.02 0.02 0.03 0.02 0.02 0.01 0.01 0.02 0.02 0.02 0.01 0.01 0.00 0.00 0.00 0.01 0.01 0.01 0.02
0.14 0.16 0.12 0.04 0.02 0.02 0.06 0.04 0.00 0.00 0.00 0.00 0.00 0.00 0.00 0.00 0.00 0.00 0.00 0.00 0.01 0.01 0.02 0.02 0.02 0.03 0.04 0.03 0.03 0.03 0.02 0.02 0.02 0.02 0.02 0.01 0.01 0.01 0.01 0.01 0.01 0.01 0.01 0.01 0.01 0.01 0.01 0.01 0.02
0.23 0.18 0.10 0.03 0.01 0.02 0.06 0.04 0.00 0.00 0.00 0.00 0.00 0.00 0.00 0.00 0.00 0.00 0.00 0.00 0.00 0.01 0.02 0.02 0.03 0.02 0.03 0.04 0.03 0.03 0.03 0.03 0.02 0.02 0.02 0.02 0.01 0.01 0.01 0.02 0.01 0.01 0.02 0.02 0.03 0.03 0.02 0.02 0.02
0.21 0.11 0.06 0.03 0.02 0.03 0.04 0.03 0.01 0.00 0.00 0.00 0.00 0.00 0.00 0.00 0.00 0.00 0.00 0.00 0.00 0.01 0.02 0.02 0.02 0.03 0.03 0.05 0.05 0.05 0.04 0.03 0.03 0.02 0.02 0.01 0.01 0.01 0.01 0.02 0.01 0.01 0.01 0.02 0.02 0.02 0.02 0.02 0.02
0.11 0.10 0.07 0.03 0.02 0.05 0.04 0.02 0.01 0.00 0.00 0.00 0.00 0.00 0.00 0.00 0.00 0.00 0.00 0.00 0.01 0.01 0.02 0.02 0.02 0.03 0.04 0.04 0.05 0.04 0.04 0.03 0.02 0.02 0.01 0.01 0.01 0.01 0.01 0.01 0.01 0.01 0.01 0.02 0.02 0.02 0.03 0.02 0.02
0.15 0.16 0.12 0.06 0.03 0.07 0.06 0.03 0.01 0.01 0.01 0.00 0.00 0.00 0.00 0.00 0.00 0.00 0.00 0.00 0.00 0.01 0.01 0.02 0.02 0.02 0.02 0.02 0.02 0.02 0.02 0.02 0.02 0.01 0.01 0.01 0.01 0.01 0.01 0.01 0.01 0.01 0.01 0.01 0.01 0.02 0.05 0.04 0.03
0.20 0.18 0.13 0.09 0.06 0.09 0.10 0.07 0.01 0.01 0.01 0.00 0.00 0.00 0.00 0.00 0.00 0.00 0.00 0.00 0.00 0.01 0.01 0.01 0.02 0.02 0.01 0.01 0.02 0.03 0.03 0.03 0.03 0.02 0.01 0.01 0.01 0.01 0.00 0.01 0.01 0.01 0.01 0.01 0.01 0.02 0.04 0.06 0.04
0.24 0.11 0.11 0.13 0.19 0.20 0.15 0.15 0.03 0.00 0.00 0.00 0.00 0.00 0.00 0.00 0.00 0.00 0.00 0.00 0.00 0.00 0.00 0.01 0.01 0.02 0.02 0.02 0.02 0.02 0.02 0.02 0.01 0.01 0.01 0.01 0.01 0.01 0.01 0.01 0.01 0.01 0.01 0.02 0.02 0.03 0.05 0.11 0.12
0.18 0.11 0.13 0.18 0.27 0.33 0.21 0.23 0.06 0.00 0.00 0.00 0.00 0.00 0.00 0.00 0.00 0.00 0.00 0.00 0.00 0.00 0.00 0.01 0.01 0.02 0.02 0.02 0.02 0.01 0.01 0.00 0.00 0.00 0.01 0.01 0.01 0.01 0.01 0.01 0.01 0.01 0.01 0.02 0.03 0.04 0.06 0.12 0.17
0.16 0.20 0.28 0.33 0.53 0.75 0.26 0.20 0.09 0.01 0.00 0.00 0.00 0.00 0.00 0.00 0.00 0.00 0.00 0.00 0.01 0.01 0.00 0.01 0.01 0.02 0.02 0.02 0.02 0.01 0.01 0.00 0.00 0.00 0.01 0.01 0.01 0.01 0.01 0.01 0.01 0.01 0.02 0.03 0.05 0.07 0.09 0.11 0.15
0.33 0.57 0.93 1.03 1.13 0.74 0.13 0.13 0.08 0.01 0.00 0.00 0.00 0.00 0.00 0.00 0.00 0.00 0.00 0.00 0.00 0.01 0.01 0.01 0.02 0.02 0.02 0.03 0.02 0.01 0.01 0.01 0.01 0.01 0.01 0.01 0.02 0.01 0.01 0.01 0.02 0.02 0.03 0.05 0.07 0.10 0.12 0.13 0.17
0.37 0.53 0.76 0.70 0.44 0.14 0.05 0.08 0.03 0.00 0.00 0.00 0.00 0.00 0.00 0.00 0.00 0.00 0.00 0.00 0.00 0.01 0.01 0.02 0.02 0.02 0.02 0.02 0.02 0.02 0.01 0.01 0.01 0.01 0.01 0.02 0.02 0.02 0.01 0.01 0.02 0.03 0.05 0.08 0.11 0.13 0.14 0.16 0.19
0.35 0.36 0.31 0.43 0.32 0.16 0.08 0.03 0.01 0.00 0.00 0.00 0.00 0.00 0.00 0.00 0.00 0.00 0.00 0.00 0.00 0.00 0.01 0.01 0.02 0.02 0.02 0.02 0.02 0.02 0.02 0.01 0.01 0.01 0.01 0.02 0.02 0.02 0.01 0.02 0.04 0.05 0.08 0.11 0.14 0.16 0.18 0.21 0.23
0.29 0.35 0.38 0.63 0.63 0.35 0.14 0.04 0.03 0.01 0.01 0.00 0.00 0.00 0.00 0.00 0.00 0.00 0.00 0.00 0.00 0.00 0.00 0.00 0.01 0.01 0.01 0.02 0.02 0.02 0.02 0.02 0.01 0.01 0.01 0.01 0.02 0.02 0.02 0.04 0.07 0.11 0.15 0.18 0.19 0.21 0.21 0.25 0.27
0.36 0.46 0.59 0.61 0.44 0.30 0.19 0.08 0.05 0.03 0.02 0.01 0.01 0.00 0.00 0.00 0.00 0.00 0.00 0.00 0.00 0.00 0.01 0.01 0.01 0.01 0.01 0.01 0.02 0.02 0.02 0.02 0.02 0.02 0.02 0.02 0.03 0.03 0.04 0.07 0.10 0.15 0.21 0.25 0.29 0.30 0.31 0.32 0.30
0.41 0.45 0.52 0.61 0.47 0.21 0.17 0.11 0.05 0.03 0.02 0.02 0.01 0.01 0.00 0.00 0.00 0.00 0.00 0.00 0.00 0.00 0.01 0.01 0.01 0.02 0.01 0.01 0.01 0.01 0.01 0.02 0.03 0.03 0.03 0.03 0.04 0.06 0.08 0.12 0.17 0.21 0.25 0.29 0.37 0.44 0.46 0.49 0.47

GEFSSGP_prec_meanprecacc_156.txt.gz
Total_Precipitation_Accumulation
0.02 0.02 0.01 0.00 0.00 0.00 0.00 0.00 0.00 0.00 0.00 0.00 0.00 0.00 0.00 0.00 0.00 0.00 0.00 0.00 0.02 0.03 0.05 0.12 0.15 0.16 0.20 0.21 0.18 0.14 0.11 0.13 0.13 0.12 0.11 0.12 0.13 0.15 0.17 0.19 0.22 0.26 0.28 0.26 0.24 0.25 0.27 0.25 0.23
0.02 0.03 0.02 0.01 0.00 0.00 0.00 0.00 0.00 0.00 0.00 0.00 0.00 0.00 0.00 0.00 0.00 0.00 0.00 0.00 0.01 0.01 0.03 0.07 0.13 0.16 0.18 0.18 0.16 0.12 0.11 0.11 0.11 0.10 0.09 0.10 0.11 0.12 0.13 0.14 0.18 0.24 0.29 0.33 0.32 0.31 0.30 0.26 0.24
0.04 0.05 0.03 0.02 0.01 0.00 0.00 0.00 0.00 0.00 0.00 0.00 0.00 0.00 0.00 0.00 0.00 0.00 0.00 0.00 0.00 0.01 0.02 0.06 0.13 0.16 0.18 0.18 0.15 0.12 0.11 0.12 0.11 0.10 0.09 0.10 0.10 0.10 0.10 0.10 0.12 0.18 0.26 0.32 0.35 0.33 0.30 0.29 0.27
0.04 0.07 0.04 0.02 0.00 0.00 0.00 0.00 0.00 0.00 0.00 0.00 0.00 0.00 0.00 0.00 0.00 0.00 0.00 0.00 0.00 0.01 0.02 0.07 0.13 0.16 0.18 0.18 0.15 0.13 0.12 0.12 0.12 0.11 0.11 0.13 0.13 0.11 0.09 0.08 0.07 0.09 0.16 0.24 0.28 0.29 0.30 0.32 0.27
0.06 0.07 0.05 0.02 0.00 0.00 0.00 0.00 0.00 0.00 0.00 0.00 0.00 0.00 0.00 0.00 0.00 0.00 0.00 0.00 0.00 0.01 0.02 0.07 0.14 0.17 0.18 0.18 0.15 0.14 0.13 0.13 0.12 0.12 0.13 0.15 0.14 0.12 0.11 0.10 0.08 0.06 0.07 0.13 0.19 0.24 0.28 0.32 0.29
0.11 0.09 0.04 0.01 0.00 0.00 0.00 0.00 0.00 0.00 0.00 0.00 0.00 0.00 0.00 0.00 0.00 0.00 0.00 0.00 0.00 0.01 0.02 0.07 0.14 0.17 0.18 0.18 0.17 0.16 0.16 0.16 0.15 0.14 0.15 0.13 0.13 0.13 0.14 0.13 0.11 0.08 0.07 0.08 0.10 0.16 0.22 0.27 0.29
0.11 0.09 0.03 0.00 0.00 0.00 0.00 0.00 0.00 0.00 0.00 0.00 0.00 0.00 0.00 0.00 0.00 0.00 0.00 0.00 0.00 0.01 0.02 0.06 0.11 0.14 0.17 0.17 0.16 0.15 0.16 0.16 0.15 0.14 0.13 0.11 0.10 0.12 0.16 0.16 0.13 0.12 0.11 0.10 0.08 0.08 0.12 0.16 0.20
0.13 0.14 0.05 0.01 0.00 0.00 0.00 0.00 0.00 0.00 0.00 0.00 0.00 0.00 0.00 0.00 0.00 0.00 0.00 0.00 0.01 0.02 0.03 0.05 0.08 0.09 0.12 0.14 0.15 0.15 0.15 0.15 0.15 0.13 0.11 0.09 0.09 0.11 0.14 0.14 0.11 0.12 0.13 0.13 0.11 0.09 0.08 0.08 0.10
0.20 0.22 0.08 0.01 0.00 0.00 0.00 0.00 0.00 0.00 0.00 0.00 0.00 0.00 0.00 0.00 0.00 0.01 0.01 0.02 0.02 0.04 0.04 0.05 0.07 0.08 0.10 0.11 0.12 0.14 0.16 0.15 0.14 0.12 0.10 0.09 0.07 0.06 0.06 0.06 0.07 0.10 0.12 0.11 0.12 0.12 0.10 0.07 0.04
0.21 0.16 0.06 0.01 0.00 0.00 0.01 0.00 0.00 0.00 0.00 0.00 0.00 0.00 0.00 0.00 0.01 0.01 0.01 0.01 0.02 0.03 0.04 0.05 0.06 0.07 0.09 0.09 0.10 0.12 0.12 0.12 0.09 0.09 0.09 0.08 0.07 0.05 0.06 0.05 0.06 0.10 0.11 0.10 0.11 0.12 0.11 0.08 0.06
0.16 0.10 0.03 0.01 0.01 0.01 0.01 0.01 0.01 0.01 0.00 0.00 0.00 0.00 0.00 0.00 0.01 0.01 0.01 0.01 0.01 0.02 0.03 0.04 0.05 0.06 0.07 0.07 0.08 0.10 0.10 0.11 0.11 0.10 0.11 0.10 0.11 0.11 0.11 0.11 0.13 0.13 0.13 0.13 0.15 0.17 0.17 0.19 0.21
0.11 0.07 0.04 0.03 0.02 0.02 0.02 0.02 0.02 0.01 0.00 0.00 0.00 0.00 0.00 0.00 0.01 0.01 0.01 0.01 0.02 0.02 0.02 0.03 0.04 0.06 0.06 0.05 0.05 0.05 0.06 0.08 0.10 0.10 0.13 0.15 0.19 0.20 0.22 0.22 0.26 0.27 0.26 0.24 0.23 0.20 0.20 0.21 0.22
0.10 0.05 0.04 0.05 0.04 0.03 0.03 0.03 0.02 0.01 0.00 0.00 0.00 0.00 0.00 0.00 0.01 0.02 0.02 0.03 0.03 0.03 0.03 0.03 0.04 0.05 0.06 0.05 0.04 0.04 0.04 0.05 0.08 0.08 0.10 0.11 0.11 0.11 0.11 0.12 0.12 0.12 0.14 0.14 0.16 0.17 0.16 0.16 0.16
0.09 0.07 0.05 0.06 0.06 0.04 0.04 0.03 0.02 0.01 0.00 0.00 0.00 0.00 0.00 0.00 0.01 0.02 0.03 0.04 0.05 0.04 0.03 0.04 0.04 0.05 0.05 0.04 0.04 0.03 0.03 0.04 0.04 0.04 0.04 0.04 0.04 0.04 0.03 0.03 0.03 0.02 0.02 0.02 0.03 0.04 0.05 0.06 0.08
0.12 0.13 0.10 0.05 0.05 0.05 0.07 0.06 0.02 0.00 0.00 0.01 0.00 0.00 0.00 0.01 0.01 0.02 0.02 0.02 0.03 0.04 0.04 0.05 0.05 0.06 0.05 0.04 0.04 0.04 0.03 0.03 0.03 0.03 0.02 0.01 0.01 0.02 0.02 0.02 0.01 0.01 0.00 0.00 0.00 0.01 0.01 0.01 0.02
0.22 0.24 0.17 0.06 0.03 0.05 0.13 0.09 0.01 0.00 0.00 0.01 0.00 0.00 0.00 0.01 0.01 0.02 0.03 0.02 0.03 0.05 0.05 0.06 0.06 0.07 0.07 0.05 0.04 0.04 0.03 0.03 0.03 0.02 0.02 0.01 0.01 0.01 0.01 0.01 0.01 0.01 0.01 0.01 0.01 0.01 0.01 0.01 0.02
0.30 0.26 0.15 0.05 0.03 0.06 0.13 0.09 0.01 0.00 0.01 0.01 0.01 0.01 0.00 0.01 0.01 0.03 0.04 0.03 0.03 0.05 0.06 0.07 0.07 0.07 0.07 0.08 0.06 0.05 0.04 0.03 0.03 0.02 0.02 0.02 0.01 0.01 0.01 0.02 0.01 0.01 0.02 0.02 0.03 0.03 0.02 0.02 0.02
0.27 0.17 0.09 0.05 0.04 0.07 0.10 0.07 0.02 0.01 0.01 0.01 0.01 0.01 0.01 0.00 0.01 0.02 0.04 0.05 0.04 0.05 0.06 0.08 0.09 0.08 0.09 0.10 0.10 0.08 0.06 0.04 0.03 0.02 0.02 0.02 0.01 0.01 0.01 0.02 0.01 0.01 0.01 0.02 0.02 0.02 0.02 0.02 0.02
0.16 0.17 0.12 0.05 0.04 0.10 0.10 0.06 0.02 0.01 0.02 0.02 0.01 0.03 0.02 0.00 0.00 0.01 0.04 0.06 0.07 0.07 0.07 0.07 0.09 0.10 0.11 0.10 0.10 0.09 0.07 0.04 0.03 0.02 0.01 0.01 0.01 0.01 0.01 0.01 0.01 0.01 0.01 0.02 0.02 0.02 0.03 0.02 0.02
0.21 0.24 0.18 0.09 0.06 0.11 0.11 0.05 0.02 0.02 0.02 0.02 0.01 0.03 0.03 0.01 0.00 0.01 0.02 0.06 0.08 0.07 0.07 0.06 0.07 0.08 0.08 0.07 0.05 0.05 0.05 0.04 0.03 0.02 0.01 0.01 0.01 0.01 0.01 0.01 0.01 0.01 0.01 0.01 0.01 0.02 0.05 0.04 0.03
0.26 0.24 0.18 0.13 0.10 0.14 0.16 0.10 0.02 0.01 0.01 0.02 0.02 0.02 0.03 0.02 0.01 0.01 0.01 0.03 0.05 0.06 0.06 0.05 0.06 0.06 0.07 0.07 0.07 0.07 0.08 0.08 0.06 0.03 0.02 0.01 0.01 0.01 0.00 0.01 0.01 0.01 0.01 0.01 0.01 0.02 0.04 0.06 0.04
0.30 0.15 0.15 0.17 0.25 0.27 0.22 0.22 0.04 0.00 0.01 0.01 0.01 0.01 0.01 0.02 0.01 0.01 0.01 0.02 0.03 0.03 0.05 0.06 0.06 0.05 0.06 0.08 0.07 0.06 0.06 0.05 0.04 0.02 0.01 0.01 0.01 0.01 0.01 0.01 0.01 0.01 0.01 0.02 0.02 0.03 0.05 0.11 0.12
0.22 0.16 0.19 0.23 0.35 0.43 0.29 0.31 0.08 0.01 0.01 0.00 0.00 0.00 0.00 0.01 0.01 0.01 0.01 0.02 0.02 0.02 0.03 0.05 0.07 0.07 0.07 0.07 0.07 0.05 0.05 0.03 0.02 0.03 0.02 0.01 0.01 0.01 0.01 0.01 0.01 0.01 0.01 0.02 0.03 0.04 0.06 0.12 0.17
0.19 0.25 0.33 0.41 0.66 0.88 0.31 0.26 0.11 0.01 0.01 0.01 0.00 0.00 0.00 0.01 0.01 0.01 0.01 0.02 0.02 0.03 0.04 0.04 0.06 0.06 0.06 0.07 0.06 0.05 0.05 0.04 0.03 0.02 0.02 0.02 0.01 0.01 0.01 0.01 0.01 0.01 0.02 0.03 0.05 0.07 0.09 0.11 0.15
0.37 0.67 1.04 1.14 1.24 0.80 0.14 0.16 0.10 0.01 0.01 0.01 0.01 0.00 0.00 0.00 0.01 0.01 0.01 0.01 0.02 0.04 0.05 0.04 0.06 0.06 0.06 0.06 0.06 0.06 0.05 0.05 0.04 0.03 0.02 0.02 0.02 0.02 0.01 0.01 0.02 0.02 0.03 0.05 0.07 0.10 0.12 0.13 0.17
0.42 0.62 0.86 0.80 0.51 0.17 0.06 0.10 0.05 0.02 0.01 0.01 0.01 0.00 0.00 0.00 0.00 0.01 0.00 0.00 0.01 0.02 0.04 0.04 0.05 0.06 0.06 0.05 0.06 0.07 0.08 0.07 0.05 0.03 0.03 0.03 0.02 0.02 0.01 0.01 0.02 0.03 0.05 0.08 0.11 0.14 0.14 0.16 0.19
0.40 0.42 0.37 0.53 0.41 0.21 0.11 0.06 0.03 0.01 0.01 0.01 0.01 0.01 0.01 0.00 0.00 0.01 0.00 0.00 0.00 0.01 0.02 0.03 0.03 0.05 0.06 0.06 0.05 0.06 0.07 0.07 0.06 0.04 0.03 0.03 0.02 0.02 0.01 0.02 0.04 0.05 0.08 0.11 0.14 0.17 0.18 0.22 0.23
0.35 0.42 0.45 0.72 0.71 0.41 0.18 0.07 0.06 0.04 0.03 0.02 0.02 0.02 0.01 0.01 0.01 0.01 0.01 0.00 0.00 0.01 0.01 0.02 0.02 0.03 0.04 0.05 0.06 0.05 0.06 0.07 0.07 0.07 0.05 0.03 0.03 0.02 0.02 0.04 0.07 0.11 0.15 0.18 0.19 0.21 0.21 0.26 0.27
0.41 0.53 0.68 0.69 0.51 0.38 0.26 0.15 0.13 0.08 0.05 0.03 0.02 0.01 0.02 0.01 0.01 0.01 0.01 0.01 0.00 0.01 0.01 0.03 0.03 0.03 0.04 0.04 0.05 0.06 0.05 0.06 0.08 0.08 0.06 0.06 0.05 0.04 0.05 0.07 0.10 0.15 0.21 0.25 0.29 0.30 0.31 0.32 0.30
0.45 0.52 0.60 0.70 0.54 0.26 0.24 0.20 0.13 0.08 0.05 0.04 0.03 0.02 0.01 0.01 0.01 0.01 0.01 0.01 0.01 0.01 0.01 0.02 0.04 0.04 0.03 0.03 0.03 0.04 0.05 0.06 0.08 0.08 0.07 0.07 0.08 0.08 0.09 0.13 0.17 0.21 0.25 0.29 0.38 0.44 0.46 0.49 0.48

GEFSSGP_prec_meanprecacc_162.txt.gz
Total_Precipitation_Accumulation
0.03 0.04 0.03 0.02 0.01 0.01 0.00 0.00 0.00 0.00 0.00 0.00 0.00 0.00 0.00 0.00 0.00 0.00 0.00 0.00 0.02 0.03 0.05 0.12 0.16 0.17 0.21 0.23 0.20 0.16 0.13 0.14 0.16 0.14 0.13 0.15 0.15 0.16 0.18 0.20 0.23 0.27 0.30 0.28 0.25 0.26 0.28 0.26 0.24
0.04 0.05 0.04 0.03 0.01 0.00 0.00 0.00 0.00 0.00 0.00 0.00 0.00 0.00 0.00 0.00 0.00 0.00 0.00 0.00 0.01 0.01 0.03 0.07 0.14 0.17 0.20 0.20 0.17 0.14 0.12 0.13 0.14 0.12 0.11 0.12 0.12 0.13 0.15 0.16 0.19 0.25 0.31 0.34 0.33 0.32 0.31 0.27 0.25
0.06 0.08 0.06 0.04 0.01 0.00 0.00 0.00 0.00 0.00 0.00 0.00 0.00 0.00 0.00 0.00 0.00 0.00 0.00 0.00 0.00 0.01 0.02 0.07 0.14 0.17 0.20 0.20 0.17 0.14 0.13 0.13 0.13 0.12 0.11 0.12 0.12 0.12 0.12 0.11 0.13 0.19 0.27 0.33 0.36 0.33 0.31 0.29 0.27
0.07 0.11 0.09 0.04 0.01 0.00 0.00 0.00 0.00 0.00 0.00 0.00 0.00 0.00 0.00 0.00 0.00 0.00 0.00 0.00 0.00 0.01 0.02 0.08 0.15 0.18 0.20 0.20 0.17 0.14 0.13 0.14 0.14 0.13 0.13 0.15 0.14 0.12 0.11 0.09 0.08 0.10 0.16 0.24 0.29 0.29 0.31 0.32 0.27
0.11 0.11 0.09 0.04 0.00 0.00 0.00 0.00 0.00 0.00 0.00 0.00 0.00 0.00 0.00 0.00 0.00 0.00 0.00 0.00 0.00 0.01 0.03 0.08 0.16 0.20 0.21 0.20 0.17 0.15 0.15 0.15 0.15 0.15 0.15 0.16 0.15 0.13 0.12 0.11 0.08 0.07 0.08 0.13 0.19 0.24 0.28 0.32 0.29
0.16 0.14 0.08 0.02 0.00 0.00 0.00 0.00 0.00 0.00 0.00 0.00 0.00 0.00 0.00 0.00 0.00 0.00 0.00 0.00 0.00 0.01 0.03 0.09 0.18 0.20 0.21 0.20 0.19 0.18 0.17 0.18 0.17 0.16 0.16 0.15 0.14 0.14 0.14 0.14 0.12 0.09 0.08 0.08 0.11 0.17 0.23 0.28 0.29
0.16 0.15 0.06 0.01 0.00 0.00 0.00 0.00 0.00 0.00 0.00 0.00 0.00 0.00 0.00 0.00 0.00 0.00 0.00 0.00 0.01 0.02 0.03 0.09 0.15 0.18 0.20 0.20 0.19 0.18 0.18 0.18 0.17 0.16 0.14 0.12 0.11 0.13 0.17 0.17 0.14 0.12 0.11 0.10 0.08 0.09 0.13 0.16 0.21
0.19 0.21 0.10 0.03 0.01 0.01 0.00 0.00 0.00 0.00 0.00 0.00 0.00 0.00 0.00 0.00 0.00 0.00 0.00 0.01 0.02 0.03 0.05 0.09 0.14 0.15 0.17 0.19 0.18 0.17 0.17 0.17 0.17 0.15 0.12 0.10 0.10 0.12 0.15 0.14 0.12 0.12 0.14 0.13 0.12 0.10 0.09 0.09 0.10
0.29 0.31 0.13 0.03 0.02 0.02 0.01 0.01 0.00 0.00 0.00 0.00 0.00 0.00 0.00 0.00 0.00 0.01 0.02 0.03 0.05 0.06 0.07 0.10 0.14 0.15 0.16 0.17 0.16 0.17 0.18 0.18 0.16 0.13 0.11 0.10 0.08 0.08 0.07 0.06 0.08 0.11 0.12 0.11 0.12 0.13 0.10 0.08 0.05
0.30 0.25 0.10 0.02 0.02 0.03 0.03 0.03 0.02 0.02 0.01 0.00 0.00 0.00 0.00 0.00 0.01 0.01 0.01 0.02 0.04 0.06 0.07 0.10 0.13 0.15 0.17 0.16 0.17 0.18 0.16 0.15 0.11 0.10 0.10 0.09 0.08 0.07 0.06 0.05 0.07 0.11 0.12 0.11 0.12 0.13 0.12 0.08 0.06
0.22 0.15 0.07 0.03 0.02 0.04 0.05 0.04 0.05 0.05 0.03 0.01 0.01 0.00 0.00 0.01 0.02 0.01 0.01 0.01 0.02 0.03 0.06 0.08 0.12 0.16 0.17 0.15 0.16 0.16 0.14 0.14 0.13 0.12 0.12 0.12 0.13 0.12 0.11 0.11 0.13 0.14 0.13 0.13 0.15 0.17 0.17 0.19 0.21
0.17 0.11 0.08 0.06 0.06 0.07 0.07 0.06 0.06 0.06 0.04 0.01 0.01 0.01 0.02 0.02 0.02 0.02 0.02 0.02 0.03 0.05 0.06 0.08 0.12 0.16 0.16 0.14 0.12 0.11 0.10 0.10 0.12 0.12 0.14 0.16 0.19 0.21 0.22 0.23 0.26 0.27 0.26 0.24 0.23 0.21 0.21 0.21 0.22
0.15 0.09 0.07 0.08 0.08 0.08 0.08 0.07 0.06 0.04 0.02 0.01 0.01 0.02 0.02 0.02 0.03 0.03 0.03 0.04 0.05 0.06 0.07 0.09 0.12 0.16 0.17 0.15 0.13 0.10 0.08 0.08 0.09 0.09 0.11 0.12 0.11 0.12 0.12 0.12 0.12 0.12 0.14 0.14 0.16 0.17 0.16 0.16 0.16
0.13 0.10 0.08 0.09 0.10 0.09 0.09 0.07 0.05 0.03 0.01 0.02 0.02 0.02 0.02 0.02 0.03 0.04 0.06 0.06 0.07 0.07 0.08 0.10 0.13 0.16 0.17 0.15 0.13 0.10 0.07 0.07 0.06 0.06 0.05 0.04 0.04 0.04 0.04 0.03 0.03 0.02 0.02 0.02 0.03 0.04 0.05 0.06 0.08
0.16 0.17 0.13 0.08 0.07 0.08 0.12 0.11 0.04 0.02 0.01 0.02 0.02 0.02 0.02 0.02 0.03 0.03 0.05 0.06 0.06 0.07 0.10 0.12 0.13 0.18 0.20 0.17 0.15 0.12 0.08 0.06 0.05 0.04 0.03 0.02 0.02 0.02 0.03 0.02 0.01 0.01 0.00 0.00 0.00 0.01 0.01 0.01 0.02
0.26 0.29 0.22 0.09 0.06 0.08 0.19 0.15 0.03 0.01 0.03 0.03 0.02 0.02 0.02 0.02 0.03 0.04 0.06 0.07 0.08 0.10 0.12 0.14 0.16 0.19 0.21 0.18 0.17 0.14 0.11 0.07 0.05 0.04 0.03 0.02 0.02 0.02 0.02 0.02 0.01 0.01 0.01 0.01 0.01 0.01 0.01 0.01 0.02
0.35 0.31 0.17 0.07 0.06 0.10 0.20 0.14 0.02 0.02 0.03 0.04 0.03 0.02 0.02 0.02 0.03 0.05 0.07 0.08 0.10 0.13 0.14 0.16 0.17 0.19 0.20 0.20 0.19 0.17 0.13 0.10 0.06 0.05 0.04 0.03 0.02 0.02 0.02 0.02 0.02 0.01 0.02 0.02 0.03 0.03 0.02 0.02 0.02
0.33 0.21 0.12 0.06 0.06 0.11 0.15 0.10 0.02 0.02 0.03 0.03 0.03 0.03 0.02 0.02 0.02 0.04 0.08 0.11 0.13 0.15 0.17 0.18 0.20 0.21 0.22 0.24 0.25 0.23 0.18 0.13 0.08 0.05 0.04 0.03 0.02 0.01 0.02 0.02 0.01 0.01 0.01 0.02 0.02 0.02 0.02 0.02 0.02
0.22 0.22 0.15 0.06 0.05 0.12 0.11 0.07 0.03 0.02 0.03 0.03 0.03 0.04 0.03 0.02 0.01 0.03 0.08 0.13 0.17 0.20 0.21 0.20 0.22 0.23 0.25 0.25 0.25 0.23 0.19 0.13 0.08 0.06 0.04 0.03 0.02 0.01 0.01 0.01 0.01 0.01 0.01 0.02 0.02 0.02 0.03 0.02 0.02
0.25 0.28 0.20 0.11 0.06 0.14 0.13 0.06 0.03 0.02 0.03 0.03 0.03 0.04 0.05 0.02 0.02 0.02 0.05 0.12 0.18 0.21 0.21 0.19 0.19 0.21 0.21 0.20 0.19 0.18 0.16 0.13 0.07 0.05 0.04 0.03 0.02 0.01 0.01 0.01 0.01 0.01 0.01 0.01 0.01 0.02 0.05 0.04 0.03
0.29 0.26 0.20 0.16 0.13 0.17 0.18 0.12 0.02 0.02 0.02 0.03 0.02 0.03 0.04 0.03 0.02 0.02 0.02 0.07 0.14 0.19 0.21 0.18 0.16 0.17 0.19 0.20 0.22 0.21 0.22 0.20 0.13 0.07 0.04 0.02 0.02 0.01 0.01 0.01 0.01 0.01 0.01 0.01 0.01 0.02 0.04 0.06 0.04
0.32 0.17 0.17 0.20 0.30 0.32 0.26 0.27 0.04 0.01 0.01 0.01 0.02 0.01 0.02 0.03 0.02 0.02 0.02 0.04 0.08 0.12 0.19 0.21 0.16 0.15 0.16 0.20 0.22 0.20 0.19 0.18 0.12 0.06 0.03 0.02 0.02 0.01 0.01 0.01 0.01 0.01 0.01 0.02 0.02 0.03 0.05 0.11 0.12
0.24 0.17 0.21 0.25 0.39 0.48 0.32 0.35 0.10 0.01 0.02 0.01 0.01 0.01 0.01 0.02 0.03 0.02 0.02 0.03 0.06 0.09 0.15 0.22 0.21 0.17 0.16 0.18 0.20 0.20 0.18 0.15 0.13 0.09 0.05 0.03 0.02 0.02 0.01 0.01 0.01 0.01 0.01 0.02 0.03 0.04 0.06 0.12 0.17
0.20 0.27 0.35 0.43 0.70 0.92 0.33 0.29 0.13 0.03 0.03 0.03 0.01 0.01 0.01 0.01 0.03 0.02 0.02 0.03 0.06 0.11 0.15 0.20 0.24 0.21 0.18 0.17 0.17 0.18 0.18 0.17 0.15 0.12 0.06 0.04 0.02 0.02 0.01 0.01 0.01 0.01 0.02 0.03 0.05 0.07 0.09 0.11 0.15
0.39 0.71 1.08 1.18 1.28 0.82 0.16 0.18 0.13 0.04 0.03 0.03 0.03 0.02 0.01 0.01 0.02 0.03 0.02 0.03 0.05 0.10 0.16 0.17 0.21 0.21 0.19 0.17 0.17 0.16 0.16 0.16 0.16 0.13 0.08 0.05 0.03 0.02 0.02 0.01 0.02 0.02 0.03 0.05 0.07 0.10 0.12 0.13 0.17
0.44 0.67 0.93 0.85 0.54 0.18 0.08 0.12 0.08 0.06 0.04 0.02 0.02 0.02 0.02 0.02 0.02 0.03 0.03 0.03 0.03 0.06 0.12 0.15 0.18 0.18 0.19 0.17 0.15 0.15 0.17 0.16 0.15 0.15 0.12 0.07 0.04 0.03 0.02 0.02 0.02 0.03 0.05 0.08 0.11 0.14 0.14 0.16 0.19
0.42 0.45 0.42 0.59 0.44 0.24 0.14 0.09 0.07 0.04 0.03 0.02 0.02 0.02 0.03 0.03 0.02 0.03 0.03 0.03 0.03 0.04 0.09 0.12 0.14 0.15 0.16 0.17 0.15 0.14 0.15 0.16 0.15 0.16 0.17 0.11 0.06 0.04 0.03 0.03 0.04 0.06 0.08 0.11 0.14 0.17 0.18 0.22 0.24
0.36 0.45 0.48 0.77 0.75 0.45 0.24 0.12 0.12 0.09 0.06 0.04 0.03 0.03 0.04 0.04 0.03 0.03 0.03 0.03 0.03 0.03 0.06 0.10 0.10 0.11 0.13 0.15 0.15 0.13 0.14 0.15 0.15 0.16 0.17 0.16 0.10 0.07 0.05 0.05 0.08 0.11 0.15 0.18 0.19 0.21 0.21 0.26 0.27
0.42 0.54 0.70 0.72 0.55 0.44 0.33 0.23 0.21 0.16 0.11 0.08 0.05 0.04 0.04 0.04 0.04 0.04 0.04 0.04 0.03 0.03 0.05 0.09 0.10 0.10 0.12 0.13 0.13 0.11 0.12 0.13 0.15 0.16 0.16 0.18 0.17 0.13 0.10 0.10 0.12 0.16 0.22 0.26 0.29 0.30 0.32 0.32 0.30
0.45 0.52 0.62 0.73 0.57 0.30 0.29 0.25 0.20 0.14 0.11 0.10 0.07 0.04 0.03 0.03 0.04 0.04 0.04 0.04 0.03 0.03 0.03 0.06 0.10 0.10 0.11 0.13 0.12 0.09 0.10 0.13 0.15 0.15 0.15 0.16 0.18 0.19 0.19 0.20 0.21 0.23 0.26 0.30 0.38 0.44 0.46 0.49 0.48

GEFSSGP_prec_meanprecacc_168.txt.gz
Total_Precipitation_Accumulation
0.03 0.05 0.05 0.05 0.04 0.02 0.00 0.00 0.00 0.00 0.00 0.00 0.00 0.00 0.00 0.00 0.00 0.00 0.00 0.00 0.02 0.03 0.05 0.13 0.17 0.18 0.22 0.24 0.21 0.17 0.14 0.16 0.17 0.16 0.17 0.19 0.17 0.18 0.20 0.22 0.24 0.29 0.33 0.31 0.28 0.28 0.30 0.27 0.24
0.05 0.07 0.08 0.07 0.03 0.01 0.00 0.00 0.00 0.00 0.00 0.00 0.00 0.00 0.00 0.00 0.00 0.00 0.00 0.00 0.01 0.01 0.03 0.08 0.15 0.18 0.21 0.21 0.19 0.15 0.14 0.14 0.15 0.14 0.15 0.16 0.15 0.15 0.17 0.17 0.21 0.27 0.33 0.35 0.35 0.33 0.32 0.27 0.25
0.08 0.11 0.10 0.07 0.03 0.00 0.00 0.00 0.00 0.00 0.00 0.00 0.00 0.00 0.00 0.00 0.00 0.00 0.00 0.00 0.00 0.01 0.02 0.08 0.15 0.18 0.21 0.22 0.19 0.16 0.15 0.15 0.15 0.15 0.14 0.15 0.14 0.14 0.14 0.13 0.14 0.21 0.28 0.34 0.37 0.34 0.31 0.29 0.28
0.10 0.15 0.13 0.07 0.01 0.00 0.00 0.00 0.00 0.00 0.00 0.00 0.00 0.00 0.00 0.00 0.00 0.00 0.00 0.00 0.00 0.01 0.02 0.08 0.16 0.20 0.22 0.22 0.20 0.17 0.16 0.16 0.16 0.16 0.16 0.18 0.17 0.15 0.13 0.11 0.09 0.11 0.17 0.25 0.29 0.29 0.31 0.33 0.28
0.14 0.16 0.14 0.06 0.01 0.00 0.00 0.00 0.00 0.00 0.00 0.00 0.00 0.00 0.00 0.00 0.00 0.00 0.00 0.00 0.00 0.01 0.03 0.09 0.17 0.22 0.23 0.23 0.21 0.19 0.18 0.18 0.18 0.18 0.19 0.20 0.18 0.16 0.14 0.12 0.09 0.07 0.09 0.14 0.20 0.24 0.29 0.33 0.29
0.20 0.20 0.13 0.05 0.01 0.00 0.00 0.00 0.00 0.00 0.00 0.00 0.00 0.00 0.00 0.00 0.00 0.00 0.00 0.00 0.00 0.01 0.03 0.10 0.19 0.23 0.25 0.25 0.24 0.22 0.22 0.22 0.21 0.21 0.21 0.20 0.18 0.17 0.16 0.15 0.12 0.10 0.09 0.09 0.11 0.17 0.23 0.28 0.29
0.20 0.21 0.11 0.04 0.02 0.01 0.00 0.00 0.00 0.00 0.00 0.00 0.00 0.00 0.00 0.00 0.00 0.00 0.00 0.00 0.01 0.02 0.04 0.11 0.18 0.22 0.25 0.26 0.25 0.24 0.24 0.24 0.23 0.22 0.20 0.17 0.15 0.17 0.19 0.18 0.15 0.13 0.12 0.11 0.09 0.09 0.13 0.17 0.21
0.23 0.27 0.15 0.06 0.03 0.01 0.00 0.00 0.00 0.00 0.00 0.00 0.00 0.00 0.00 0.00 0.00 0.00 0.00 0.01 0.02 0.04 0.07 0.12 0.18 0.21 0.24 0.26 0.26 0.25 0.25 0.25 0.24 0.22 0.19 0.15 0.15 0.17 0.17 0.15 0.13 0.13 0.15 0.14 0.12 0.11 0.09 0.09 0.11
0.33 0.38 0.18 0.06 0.04 0.03 0.02 0.02 0.01 0.01 0.01 0.00 0.00 0.00 0.00 0.00 0.00 0.01 0.02 0.03 0.05 0.08 0.10 0.16 0.22 0.24 0.25 0.27 0.26 0.28 0.29 0.29 0.27 0.23 0.19 0.16 0.15 0.13 0.10 0.07 0.08 0.12 0.13 0.12 0.13 0.13 0.11 0.08 0.05
0.35 0.32 0.14 0.04 0.03 0.04 0.04 0.04 0.04 0.03 0.02 0.01 0.00 0.00 0.00 0.01 0.01 0.01 0.02 0.03 0.05 0.08 0.11 0.17 0.24 0.28 0.31 0.30 0.31 0.34 0.32 0.30 0.25 0.19 0.16 0.17 0.14 0.11 0.09 0.07 0.08 0.11 0.12 0.12 0.13 0.13 0.12 0.08 0.06
0.27 0.20 0.09 0.05 0.04 0.06 0.07 0.06 0.07 0.08 0.05 0.02 0.01 0.01 0.01 0.01 0.02 0.02 0.02 0.02 0.03 0.05 0.09 0.15 0.25 0.32 0.35 0.33 0.33 0.34 0.32 0.29 0.26 0.21 0.19 0.18 0.19 0.16 0.14 0.14 0.15 0.15 0.14 0.14 0.16 0.18 0.18 0.20 0.21
0.20 0.15 0.10 0.09 0.09 0.10 0.10 0.09 0.09 0.08 0.06 0.03 0.02 0.03 0.03 0.03 0.03 0.03 0.02 0.03 0.05 0.07 0.11 0.17 0.27 0.35 0.36 0.33 0.31 0.29 0.26 0.24 0.23 0.21 0.21 0.22 0.24 0.24 0.24 0.24 0.27 0.28 0.26 0.25 0.24 0.21 0.21 0.21 0.22
0.18 0.11 0.09 0.10 0.12 0.13 0.12 0.10 0.09 0.06 0.03 0.03 0.03 0.03 0.04 0.03 0.04 0.04 0.05 0.05 0.07 0.10 0.14 0.21 0.29 0.36 0.39 0.37 0.35 0.30 0.25 0.21 0.20 0.18 0.20 0.17 0.14 0.13 0.13 0.13 0.13 0.13 0.14 0.15 0.16 0.17 0.16 0.16 0.16
0.15 0.11 0.09 0.10 0.12 0.13 0.14 0.10 0.08 0.04 0.02 0.03 0.04 0.04 0.03 0.04 0.04 0.06 0.07 0.08 0.09 0.11 0.16 0.24 0.31 0.37 0.42 0.39 0.35 0.31 0.26 0.23 0.21 0.17 0.12 0.11 0.08 0.06 0.05 0.04 0.03 0.02 0.02 0.03 0.03 0.04 0.05 0.07 0.08
0.17 0.19 0.14 0.09 0.09 0.11 0.17 0.16 0.06 0.03 0.03 0.04 0.04 0.04 0.03 0.04 0.04 0.05 0.07 0.07 0.07 0.11 0.18 0.24 0.31 0.40 0.45 0.44 0.40 0.36 0.31 0.26 0.22 0.18 0.13 0.10 0.07 0.05 0.04 0.03 0.02 0.01 0.01 0.01 0.01 0.01 0.01 0.01 0.02
0.27 0.32 0.24 0.10 0.08 0.11 0.25 0.21 0.04 0.02 0.04 0.05 0.04 0.04 0.04 0.04 0.05 0.06 0.08 0.09 0.10 0.13 0.19 0.25 0.32 0.41 0.47 0.48 0.47 0.41 0.36 0.31 0.25 0.19 0.16 0.12 0.07 0.05 0.04 0.03 0.02 0.01 0.01 0.01 0.01 0.01 0.01 0.01 0.02
0.37 0.34 0.20 0.09 0.07 0.14 0.26 0.19 0.04 0.03 0.05 0.06 0.05 0.04 0.04 0.04 0.05 0.07 0.09 0.11 0.13 0.16 0.21 0.27 0.31 0.40 0.47 0.54 0.52 0.46 0.38 0.36 0.30 0.22 0.18 0.15 0.09 0.05 0.04 0.03 0.02 0.01 0.02 0.02 0.03 0.03 0.02 0.02 0.02
0.35 0.24 0.14 0.08 0.07 0.13 0.18 0.13 0.04 0.03 0.05 0.05 0.05 0.06 0.05 0.05 0.04 0.06 0.10 0.14 0.16 0.18 0.24 0.30 0.34 0.42 0.50 0.61 0.66 0.59 0.48 0.41 0.34 0.27 0.20 0.14 0.10 0.06 0.05 0.03 0.02 0.01 0.02 0.02 0.02 0.02 0.02 0.02 0.02
0.24 0.24 0.17 0.07 0.06 0.14 0.14 0.09 0.05 0.04 0.05 0.05 0.06 0.08 0.07 0.05 0.04 0.06 0.11 0.17 0.22 0.24 0.28 0.32 0.38 0.44 0.52 0.60 0.70 0.60 0.51 0.41 0.34 0.29 0.23 0.17 0.12 0.07 0.04 0.03 0.02 0.01 0.02 0.02 0.02 0.02 0.03 0.02 0.02
0.26 0.31 0.22 0.12 0.08 0.17 0.16 0.09 0.05 0.04 0.05 0.06 0.06 0.09 0.09 0.05 0.05 0.05 0.08 0.17 0.24 0.27 0.29 0.32 0.37 0.41 0.46 0.50 0.55 0.59 0.47 0.42 0.33 0.28 0.26 0.20 0.15 0.10 0.05 0.03 0.02 0.01 0.01 0.01 0.01 0.02 0.05 0.04 0.03
0.30 0.28 0.22 0.17 0.14 0.19 0.22 0.14 0.04 0.03 0.04 0.05 0.06 0.07 0.08 0.07 0.06 0.05 0.06 0.12 0.21 0.26 0.29 0.31 0.34 0.38 0.41 0.48 0.54 0.65 0.64 0.54 0.44 0.32 0.26 0.20 0.16 0.13 0.08 0.04 0.02 0.01 0.01 0.01 0.01 0.02 0.04 0.07 0.04
0.34 0.19 0.19 0.21 0.33 0.34 0.29 0.30 0.06 0.03 0.03 0.04 0.05 0.05 0.06 0.07 0.06 0.05 0.05 0.09 0.15 0.18 0.26 0.33 0.34 0.36 0.39 0.47 0.51 0.55 0.60 0.53 0.38 0.28 0.24 0.22 0.17 0.14 0.11 0.07 0.04 0.02 0.02 0.02 0.02 0.03 0.05 0.11 0.12
0.25 0.18 0.22 0.26 0.41 0.49 0.34 0.38 0.12 0.04 0.05 0.04 0.04 0.05 0.04 0.06 0.07 0.06 0.05 0.07 0.11 0.15 0.23 0.35 0.41 0.41 0.39 0.41 0.47 0.49 0.54 0.53 0.43 0.33 0.26 0.23 0.20 0.16 0.12 0.08 0.06 0.03 0.02 0.02 0.03 0.04 0.07 0.12 0.17
0.21 0.27 0.36 0.44 0.72 0.95 0.34 0.31 0.17 0.07 0.09 0.08 0.06 0.05 0.04 0.05 0.07 0.07 0.06 0.06 0.11 0.19 0.25 0.35 0.47 0.45 0.41 0.39 0.41 0.43 0.46 0.56 0.54 0.43 0.32 0.24 0.21 0.19 0.14 0.08 0.06 0.05 0.03 0.03 0.05 0.07 0.09 0.11 0.15
0.39 0.72 1.11 1.21 1.32 0.84 0.17 0.20 0.18 0.08 0.06 0.08 0.09 0.07 0.05 0.04 0.06 0.06 0.06 0.06 0.09 0.18 0.25 0.33 0.46 0.44 0.40 0.38 0.39 0.38 0.39 0.47 0.55 0.48 0.36 0.29 0.22 0.18 0.16 0.10 0.06 0.05 0.05 0.06 0.07 0.10 0.12 0.13 0.17
0.44 0.68 0.98 0.90 0.58 0.21 0.09 0.16 0.14 0.08 0.05 0.04 0.05 0.06 0.06 0.05 0.05 0.07 0.07 0.06 0.07 0.12 0.21 0.29 0.44 0.42 0.37 0.36 0.36 0.35 0.41 0.41 0.47 0.50 0.41 0.32 0.24 0.17 0.14 0.12 0.08 0.06 0.07 0.09 0.11 0.14 0.14 0.16 0.19
0.42 0.45 0.43 0.63 0.47 0.27 0.18 0.13 0.10 0.06 0.04 0.03 0.04 0.05 0.06 0.06 0.05 0.06 0.07 0.07 0.06 0.08 0.16 0.23 0.38 0.41 0.34 0.34 0.34 0.31 0.37 0.40 0.40 0.44 0.43 0.36 0.28 0.22 0.17 0.14 0.11 0.10 0.11 0.13 0.14 0.17 0.18 0.22 0.24
0.36 0.45 0.49 0.80 0.79 0.49 0.28 0.16 0.16 0.11 0.07 0.05 0.05 0.05 0.06 0.06 0.05 0.05 0.07 0.07 0.06 0.07 0.11 0.19 0.28 0.39 0.34 0.32 0.34 0.31 0.31 0.35 0.37 0.42 0.43 0.39 0.34 0.28 0.23 0.20 0.19 0.17 0.19 0.20 0.21 0.21 0.22 0.26 0.27
0.42 0.54 0.71 0.74 0.58 0.48 0.38 0.27 0.24 0.17 0.13 0.10 0.07 0.06 0.06 0.06 0.06 0.06 0.07 0.07 0.06 0.06 0.09 0.18 0.25 0.34 0.37 0.33 0.31 0.31 0.30 0.31 0.34 0.36 0.37 0.42 0.42 0.36 0.33 0.29 0.26 0.26 0.28 0.29 0.31 0.31 0.32 0.32 0.30
0.45 0.53 0.63 0.76 0.58 0.32 0.32 0.30 0.21 0.15 0.13 0.11 0.09 0.06 0.05 0.05 0.06 0.06 0.07 0.08 0.07 0.06 0.07 0.13 0.24 0.31 0.33 0.35 0.33 0.28 0.30 0.30 0.31 0.30 0.29 0.32 0.41 0.43 0.42 0.43 0.40 0.37 0.35 0.36 0.41 0.45 0.46 0.49 0.48

GEFSSGP_prec_meanprecacc_174.txt.gz
Total_Precipitation_Accumulation
0.03 0.05 0.05 0.06 0.04 0.02 0.00 0.00 0.00 0.00 0.00 0.00 0.00 0.00 0.00 0.00 0.00 0.00 0.00 0.00 0.02 0.03 0.05 0.13 0.18 0.19 0.23 0.25 0.22 0.18 0.15 0.16 0.18 0.16 0.17 0.20 0.18 0.19 0.21 0.22 0.25 0.29 0.34 0.32 0.30 0.30 0.31 0.27 0.25
0.05 0.07 0.08 0.08 0.04 0.01 0.00 0.00 0.00 0.00 0.00 0.00 0.00 0.00 0.00 0.00 0.00 0.00 0.00 0.00 0.01 0.01 0.03 0.08 0.15 0.19 0.22 0.23 0.20 0.17 0.15 0.16 0.16 0.15 0.16 0.18 0.16 0.17 0.17 0.18 0.22 0.28 0.34 0.37 0.36 0.35 0.33 0.27 0.25
0.08 0.11 0.10 0.08 0.03 0.00 0.00 0.00 0.00 0.00 0.00 0.00 0.00 0.00 0.00 0.00 0.00 0.00 0.00 0.00 0.00 0.01 0.02 0.08 0.16 0.20 0.23 0.24 0.21 0.18 0.17 0.17 0.17 0.16 0.16 0.19 0.17 0.16 0.15 0.14 0.16 0.22 0.30 0.35 0.38 0.35 0.32 0.30 0.28
0.10 0.16 0.14 0.08 0.02 0.00 0.00 0.00 0.00 0.00 0.00 0.00 0.00 0.00 0.00 0.00 0.00 0.00 0.00 0.00 0.01 0.02 0.03 0.09 0.16 0.21 0.23 0.24 0.22 0.19 0.18 0.19 0.19 0.19 0.20 0.22 0.20 0.17 0.15 0.13 0.10 0.12 0.18 0.26 0.31 0.30 0.31 0.33 0.28
0.14 0.17 0.15 0.07 0.01 0.00 0.00 0.00 0.00 0.00 0.00 0.00 0.00 0.00 0.00 0.00 0.00 0.00 0.00 0.00 0.01 0.02 0.04 0.10 0.19 0.23 0.25 0.26 0.24 0.22 0.21 0.23 0.23 0.23 0.24 0.25 0.22 0.19 0.16 0.14 0.11 0.09 0.10 0.15 0.21 0.25 0.29 0.33 0.30
0.20 0.20 0.13 0.05 0.01 0.00 0.00 0.00 0.00 0.00 0.00 0.00 0.00 0.00 0.00 0.00 0.00 0.00 0.00 0.00 0.00 0.02 0.04 0.12 0.22 0.25 0.27 0.28 0.28 0.27 0.27 0.28 0.29 0.28 0.28 0.27 0.23 0.21 0.18 0.17 0.14 0.11 0.10 0.10 0.12 0.18 0.24 0.28 0.29
0.20 0.21 0.11 0.05 0.02 0.01 0.01 0.00 0.01 0.00 0.00 0.00 0.00 0.01 0.01 0.00 0.01 0.01 0.01 0.00 0.01 0.03 0.06 0.13 0.22 0.26 0.30 0.31 0.31 0.31 0.31 0.32 0.33 0.32 0.30 0.27 0.23 0.22 0.23 0.21 0.17 0.15 0.14 0.12 0.10 0.10 0.13 0.17 0.21
0.23 0.28 0.15 0.06 0.03 0.02 0.00 0.00 0.01 0.01 0.01 0.00 0.01 0.01 0.01 0.01 0.01 0.02 0.02 0.02 0.03 0.05 0.09 0.15 0.23 0.26 0.30 0.33 0.34 0.33 0.34 0.36 0.37 0.36 0.33 0.27 0.25 0.25 0.23 0.19 0.15 0.16 0.17 0.15 0.13 0.11 0.10 0.09 0.11
0.34 0.39 0.19 0.06 0.04 0.03 0.02 0.02 0.01 0.01 0.02 0.01 0.01 0.01 0.01 0.01 0.02 0.03 0.04 0.06 0.08 0.11 0.13 0.20 0.28 0.31 0.33 0.37 0.37 0.39 0.42 0.44 0.45 0.41 0.36 0.33 0.27 0.23 0.17 0.12 0.12 0.15 0.15 0.14 0.14 0.14 0.11 0.08 0.05
0.36 0.33 0.15 0.04 0.03 0.05 0.05 0.05 0.04 0.04 0.03 0.02 0.02 0.02 0.01 0.02 0.03 0.04 0.04 0.05 0.07 0.10 0.14 0.21 0.30 0.35 0.40 0.41 0.45 0.50 0.49 0.48 0.44 0.37 0.34 0.33 0.27 0.22 0.18 0.14 0.12 0.15 0.15 0.14 0.14 0.14 0.12 0.09 0.07
0.28 0.21 0.10 0.06 0.04 0.07 0.07 0.07 0.08 0.09 0.07 0.03 0.03 0.03 0.03 0.03 0.05 0.05 0.05 0.05 0.05 0.06 0.12 0.20 0.31 0.40 0.44 0.44 0.47 0.49 0.50 0.48 0.46 0.41 0.37 0.34 0.34 0.29 0.25 0.23 0.22 0.19 0.17 0.17 0.18 0.19 0.18 0.20 0.21
0.22 0.15 0.11 0.09 0.09 0.10 0.11 0.10 0.10 0.10 0.08 0.04 0.04 0.05 0.05 0.06 0.06 0.06 0.07 0.07 0.09 0.11 0.14 0.22 0.34 0.43 0.45 0.43 0.43 0.43 0.43 0.42 0.41 0.39 0.39 0.40 0.40 0.37 0.34 0.32 0.33 0.32 0.29 0.27 0.25 0.22 0.21 0.21 0.22
0.19 0.11 0.09 0.10 0.12 0.13 0.13 0.11 0.10 0.07 0.04 0.05 0.05 0.06 0.07 0.07 0.07 0.06 0.08 0.11 0.11 0.14 0.19 0.26 0.35 0.44 0.48 0.48 0.47 0.46 0.41 0.38 0.37 0.36 0.37 0.34 0.29 0.26 0.23 0.22 0.20 0.17 0.17 0.16 0.18 0.18 0.16 0.16 0.16
0.16 0.12 0.09 0.10 0.12 0.14 0.15 0.11 0.09 0.05 0.03 0.05 0.07 0.07 0.07 0.07 0.07 0.08 0.09 0.12 0.14 0.16 0.22 0.31 0.37 0.45 0.51 0.49 0.48 0.46 0.42 0.40 0.40 0.36 0.29 0.27 0.23 0.18 0.15 0.13 0.11 0.08 0.06 0.05 0.05 0.05 0.06 0.07 0.08
0.18 0.20 0.14 0.09 0.10 0.11 0.19 0.18 0.07 0.03 0.04 0.06 0.07 0.07 0.07 0.07 0.07 0.08 0.09 0.09 0.11 0.16 0.24 0.32 0.38 0.49 0.56 0.55 0.54 0.53 0.50 0.46 0.42 0.38 0.32 0.28 0.24 0.19 0.16 0.12 0.10 0.08 0.06 0.04 0.03 0.03 0.02 0.02 0.02
0.28 0.33 0.25 0.10 0.08 0.12 0.26 0.23 0.05 0.03 0.07 0.08 0.07 0.07 0.07 0.07 0.07 0.09 0.11 0.12 0.13 0.17 0.26 0.33 0.40 0.52 0.58 0.61 0.62 0.58 0.56 0.54 0.47 0.41 0.38 0.32 0.26 0.21 0.18 0.15 0.11 0.08 0.07 0.07 0.06 0.04 0.02 0.02 0.02
0.38 0.35 0.20 0.09 0.07 0.14 0.27 0.20 0.05 0.05 0.09 0.09 0.08 0.08 0.07 0.06 0.08 0.10 0.12 0.14 0.16 0.20 0.27 0.35 0.40 0.51 0.59 0.67 0.69 0.67 0.60 0.59 0.55 0.47 0.40 0.36 0.30 0.23 0.19 0.18 0.14 0.11 0.10 0.10 0.09 0.08 0.05 0.03 0.02
0.36 0.24 0.15 0.08 0.08 0.14 0.19 0.14 0.06 0.06 0.09 0.09 0.09 0.09 0.08 0.07 0.07 0.09 0.12 0.16 0.19 0.22 0.29 0.37 0.43 0.55 0.64 0.77 0.85 0.84 0.76 0.67 0.60 0.52 0.43 0.36 0.32 0.27 0.21 0.19 0.17 0.13 0.12 0.11 0.11 0.09 0.06 0.04 0.02
0.24 0.24 0.17 0.07 0.06 0.15 0.14 0.10 0.07 0.07 0.10 0.10 0.09 0.11 0.10 0.07 0.07 0.08 0.12 0.19 0.25 0.28 0.33 0.38 0.46 0.57 0.70 0.78 0.90 0.89 0.83 0.69 0.63 0.55 0.47 0.40 0.34 0.29 0.24 0.19 0.18 0.14 0.13 0.11 0.10 0.10 0.10 0.06 0.03
0.27 0.31 0.22 0.12 0.08 0.17 0.16 0.10 0.07 0.07 0.10 0.11 0.10 0.12 0.13 0.08 0.08 0.08 0.10 0.20 0.28 0.31 0.34 0.36 0.45 0.53 0.65 0.71 0.77 0.87 0.83 0.74 0.65 0.60 0.52 0.43 0.37 0.34 0.28 0.22 0.18 0.15 0.13 0.13 0.11 0.09 0.11 0.09 0.06
0.31 0.29 0.22 0.18 0.15 0.19 0.23 0.16 0.06 0.05 0.07 0.09 0.09 0.10 0.11 0.10 0.10 0.09 0.09 0.15 0.26 0.32 0.35 0.37 0.42 0.48 0.58 0.73 0.84 1.00 1.08 0.97 0.80 0.70 0.60 0.45 0.38 0.35 0.32 0.26 0.22 0.17 0.14 0.14 0.14 0.11 0.11 0.11 0.07
0.34 0.19 0.19 0.22 0.34 0.36 0.31 0.33 0.08 0.04 0.05 0.06 0.08 0.08 0.08 0.10 0.10 0.08 0.08 0.12 0.19 0.24 0.34 0.42 0.42 0.47 0.56 0.71 0.85 0.95 1.07 1.01 0.78 0.63 0.61 0.53 0.42 0.36 0.32 0.30 0.26 0.21 0.16 0.14 0.14 0.13 0.12 0.16 0.16
0.25 0.18 0.22 0.27 0.42 0.51 0.35 0.39 0.13 0.05 0.06 0.05 0.06 0.07 0.07 0.09 0.10 0.09 0.09 0.11 0.15 0.22 0.31 0.43 0.50 0.52 0.56 0.65 0.77 0.87 1.00 1.00 0.90 0.78 0.68 0.60 0.52 0.43 0.34 0.29 0.28 0.25 0.21 0.16 0.14 0.13 0.14 0.17 0.20
0.21 0.27 0.36 0.44 0.73 0.96 0.34 0.33 0.19 0.10 0.12 0.09 0.07 0.08 0.09 0.10 0.11 0.10 0.09 0.11 0.16 0.26 0.32 0.44 0.55 0.56 0.59 0.63 0.71 0.77 0.89 1.03 1.02 0.94 0.83 0.68 0.57 0.48 0.41 0.31 0.28 0.25 0.23 0.21 0.18 0.16 0.15 0.16 0.18
0.40 0.73 1.12 1.21 1.32 0.85 0.17 0.23 0.21 0.10 0.09 0.11 0.13 0.11 0.10 0.09 0.10 0.10 0.09 0.10 0.15 0.26 0.34 0.43 0.56 0.57 0.58 0.61 0.69 0.72 0.75 0.87 0.99 0.93 0.83 0.74 0.64 0.50 0.41 0.36 0.30 0.26 0.23 0.23 0.23 0.22 0.19 0.17 0.20
0.44 0.69 0.98 0.90 0.58 0.22 0.11 0.18 0.16 0.09 0.06 0.05 0.07 0.09 0.10 0.09 0.09 0.11 0.11 0.10 0.12 0.18 0.28 0.37 0.54 0.54 0.55 0.57 0.61 0.68 0.74 0.76 0.84 0.89 0.80 0.72 0.65 0.53 0.41 0.38 0.33 0.26 0.25 0.26 0.27 0.26 0.23 0.22 0.23
0.42 0.46 0.43 0.63 0.47 0.28 0.20 0.15 0.11 0.06 0.04 0.03 0.04 0.06 0.08 0.10 0.09 0.09 0.11 0.11 0.11 0.13 0.22 0.31 0.50 0.53 0.49 0.51 0.54 0.62 0.68 0.74 0.76 0.79 0.77 0.71 0.63 0.57 0.49 0.41 0.38 0.33 0.29 0.29 0.30 0.31 0.27 0.27 0.28
0.36 0.45 0.49 0.81 0.81 0.50 0.29 0.17 0.17 0.11 0.08 0.06 0.06 0.06 0.08 0.08 0.08 0.08 0.10 0.10 0.10 0.11 0.16 0.25 0.39 0.51 0.48 0.47 0.49 0.57 0.60 0.69 0.73 0.78 0.79 0.72 0.66 0.61 0.57 0.51 0.47 0.42 0.39 0.38 0.37 0.35 0.31 0.32 0.31
0.42 0.54 0.71 0.75 0.59 0.50 0.39 0.28 0.25 0.18 0.14 0.11 0.08 0.07 0.08 0.08 0.08 0.09 0.10 0.11 0.09 0.10 0.14 0.23 0.32 0.45 0.50 0.49 0.47 0.54 0.57 0.63 0.69 0.66 0.71 0.78 0.74 0.68 0.66 0.61 0.56 0.52 0.48 0.48 0.49 0.46 0.42 0.39 0.35
0.45 0.53 0.63 0.77 0.59 0.33 0.34 0.31 0.22 0.15 0.13 0.12 0.10 0.07 0.06 0.07 0.08 0.08 0.09 0.11 0.10 0.10 0.11 0.18 0.30 0.41 0.46 0.51 0.51 0.48 0.54 0.61 0.65 0.62 0.58 0.63 0.74 0.75 0.74 0.77 0.70 0.65 0.60 0.55 0.59 0.61 0.58 0.56 0.52